Time,TemperatureF,DewpointF,PressureIn,WindDirection,WindDirectionDegrees,WindSpeedMPH,WindSpeedGustMPH,Humidity,HourlyPrecipIn,Conditions,Clouds,dailyrainin,SoftwareType,DateUTC
2013-05-08 00:01:00,62.2,48.6,31.01,South,190,0.0,0.0,61,0.00,,,0.00,VWS V13.01,2013-05-08 05:01:00,
2013-05-08 00:02:00,62.4,48.8,31.01,South,190,0.0,0.0,61,0.00,,,0.00,VWS V13.01,2013-05-08 05:02:00,
2013-05-08 00:06:00,62.4,48.8,31.01,South,190,0.0,0.0,61,0.00,,,0.00,VWS V13.01,2013-05-08 05:06:00,
2013-05-08 00:07:00,62.4,48.8,31.01,South,190,0.0,0.0,61,0.00,,,0.00,VWS V13.01,2013-05-08 05:07:00,
2013-05-08 00:11:00,62.6,46.2,31.01,South,190,0.0,0.0,55,0.00,,,0.00,VWS V13.01,2013-05-08 05:11:00,
2013-05-08 00:12:00,62.4,48.8,31.01,South,190,0.0,0.0,61,0.00,,,0.00,VWS V13.01,2013-05-08 05:12:00,
2013-05-08 00:16:00,62.4,48.8,31.01,South,190,0.0,0.0,61,0.00,,,0.00,VWS V13.01,2013-05-08 05:16:00,
2013-05-08 00:17:00,62.4,48.8,31.01,South,190,0.0,0.0,61,0.00,,,0.00,VWS V13.01,2013-05-08 05:17:00,
2013-05-08 00:21:00,62.2,48.6,31.01,South,190,0.0,0.0,61,0.00,,,0.00,VWS V13.01,2013-05-08 05:21:00,
2013-05-08 00:22:00,62.2,48.6,31.01,South,190,0.0,0.0,61,0.00,,,0.00,VWS V13.01,2013-05-08 05:22:00,
2013-05-08 00:26:00,61.9,48.3,31.01,South,190,0.0,0.0,61,0.00,,,0.00,VWS V13.01,2013-05-08 05:26:00,
2013-05-08 00:27:00,61.9,48.3,31.01,South,190,0.0,0.0,61,0.00,,,0.00,VWS V13.01,2013-05-08 05:27:00,
2013-05-08 00:31:00,61.2,47.6,31.01,South,190,0.0,0.0,61,0.00,,,0.00,VWS V13.01,2013-05-08 05:31:00,
2013-05-08 00:32:00,61.0,47.5,31.01,South,190,0.0,0.0,61,0.00,,,0.00,VWS V13.01,2013-05-08 05:32:00,
2013-05-08 00:36:00,60.4,46.9,31.01,South,190,0.0,0.0,61,0.00,,,0.00,VWS V13.01,2013-05-08 05:36:00,
2013-05-08 00:37:00,60.3,46.8,31.01,South,190,0.0,0.0,61,0.00,,,0.00,VWS V13.01,2013-05-08 05:37:00,
2013-05-08 00:41:00,59.7,46.3,31.01,South,190,0.0,0.0,61,0.00,,,0.00,VWS V13.01,2013-05-08 05:41:00,
2013-05-08 00:42:00,59.2,45.8,31.01,South,190,0.0,0.0,61,0.00,,,0.00,VWS V13.01,2013-05-08 05:42:00,
2013-05-08 00:47:00,58.5,45.1,31.01,South,190,0.0,0.0,61,0.00,,,0.00,VWS V13.01,2013-05-08 05:47:00,
2013-05-08 00:48:00,58.3,44.9,31.01,South,190,0.0,0.0,61,0.00,,,0.00,VWS V13.01,2013-05-08 05:48:00,
2013-05-08 00:52:00,57.7,44.4,31.01,South,190,0.0,0.0,61,0.00,,,0.00,VWS V13.01,2013-05-08 05:52:00,
2013-05-08 00:53:00,57.6,44.2,31.01,South,190,0.0,0.0,61,0.00,,,0.00,VWS V13.01,2013-05-08 05:53:00,
2013-05-08 00:57:00,57.2,43.9,31.01,South,190,0.0,0.0,61,0.00,,,0.00,VWS V13.01,2013-05-08 05:57:00,
2013-05-08 00:58:00,57.4,44.1,31.01,South,190,0.0,0.0,61,0.00,,,0.00,VWS V13.01,2013-05-08 05:58:00,
2013-05-08 01:02:00,57.7,44.4,31.01,South,190,0.0,0.0,61,0.00,,,0.00,VWS V13.01,2013-05-08 06:02:00,
2013-05-08 01:03:00,57.9,44.6,31.01,South,190,0.0,0.0,61,0.00,,,0.00,VWS V13.01,2013-05-08 06:03:00,
2013-05-08 01:07:00,59.2,45.8,31.01,South,190,0.0,0.0,61,0.00,,,0.00,VWS V13.01,2013-05-08 06:07:00,
2013-05-08 01:08:00,59.4,45.9,31.01,South,190,0.0,0.0,61,0.00,,,0.00,VWS V13.01,2013-05-08 06:08:00,
2013-05-08 01:12:00,60.1,46.6,31.01,South,190,0.0,0.0,61,0.00,,,0.00,VWS V13.01,2013-05-08 06:12:00,
2013-05-08 01:13:00,60.3,46.8,31.01,South,190,0.0,0.0,61,0.00,,,0.00,VWS V13.01,2013-05-08 06:13:00,
2013-05-08 01:17:00,60.4,46.9,31.01,South,190,0.0,0.0,61,0.00,,,0.00,VWS V13.01,2013-05-08 06:17:00,
2013-05-08 01:18:00,60.6,47.1,31.01,South,190,0.0,0.0,61,0.00,,,0.00,VWS V13.01,2013-05-08 06:18:00,
2013-05-08 01:22:00,60.6,47.1,31.01,South,190,0.0,0.0,61,0.00,,,0.00,VWS V13.01,2013-05-08 06:22:00,
2013-05-08 01:23:00,60.6,47.1,31.01,South,190,0.0,0.0,61,0.00,,,0.00,VWS V13.01,2013-05-08 06:23:00,
2013-05-08 01:27:00,60.1,46.6,31.01,South,190,0.0,0.0,61,0.00,,,0.00,VWS V13.01,2013-05-08 06:27:00,
2013-05-08 01:28:00,59.7,46.3,31.01,South,190,0.0,0.0,61,0.00,,,0.00,VWS V13.01,2013-05-08 06:28:00,
2013-05-08 01:32:00,59.0,45.6,31.01,South,190,0.0,0.0,61,0.00,,,0.00,VWS V13.01,2013-05-08 06:32:00,
2013-05-08 01:33:00,59.0,45.6,31.01,South,190,0.0,0.0,61,0.00,,,0.00,VWS V13.01,2013-05-08 06:33:00,
2013-05-08 01:34:00,59.0,45.6,31.01,South,190,0.0,0.0,61,0.00,,,0.00,VWS V13.01,2013-05-08 06:34:00,
2013-05-08 01:37:00,58.6,45.2,31.01,South,190,0.0,0.0,61,0.00,,,0.00,VWS V13.01,2013-05-08 06:37:00,
2013-05-08 01:38:00,58.6,45.2,31.01,South,190,0.0,0.0,61,0.00,,,0.00,VWS V13.01,2013-05-08 06:38:00,
2013-05-08 01:39:00,58.5,45.1,31.01,South,190,0.0,0.0,61,0.00,,,0.00,VWS V13.01,2013-05-08 06:39:00,
2013-05-08 01:42:00,58.5,45.1,31.01,South,190,0.0,0.0,61,0.00,,,0.00,VWS V13.01,2013-05-08 06:42:00,
2013-05-08 01:43:00,58.5,45.1,31.01,South,190,0.0,0.0,61,0.00,,,0.00,VWS V13.01,2013-05-08 06:43:00,
2013-05-08 01:44:00,58.5,45.1,31.01,South,190,0.0,0.0,61,0.00,,,0.00,VWS V13.01,2013-05-08 06:44:00,
2013-05-08 01:47:00,58.5,45.1,31.01,South,190,0.0,0.0,61,0.00,,,0.00,VWS V13.01,2013-05-08 06:47:00,
2013-05-08 01:48:00,58.5,45.1,31.01,South,190,0.0,0.0,61,0.00,,,0.00,VWS V13.01,2013-05-08 06:48:00,
2013-05-08 01:49:00,58.5,45.1,31.01,South,190,0.0,0.0,61,0.00,,,0.00,VWS V13.01,2013-05-08 06:49:00,
2013-05-08 01:52:00,58.3,44.9,31.01,South,190,0.0,0.0,61,0.00,,,0.00,VWS V13.01,2013-05-08 06:52:00,
2013-05-08 01:53:00,58.3,44.9,31.01,South,190,0.0,0.0,61,0.00,,,0.00,VWS V13.01,2013-05-08 06:53:00,
2013-05-08 01:54:00,58.5,45.1,31.01,South,190,0.0,0.0,61,0.00,,,0.00,VWS V13.01,2013-05-08 06:54:00,
2013-05-08 01:57:00,58.5,45.1,31.01,South,190,0.0,0.0,61,0.00,,,0.00,VWS V13.01,2013-05-08 06:57:00,
2013-05-08 01:58:00,58.5,45.1,31.01,South,190,0.0,0.0,61,0.00,,,0.00,VWS V13.01,2013-05-08 06:58:00,
2013-05-08 01:59:00,58.5,45.1,31.01,South,190,0.0,0.0,61,0.00,,,0.00,VWS V13.01,2013-05-08 06:59:00,
2013-05-08 02:02:00,58.3,44.9,31.01,South,190,0.0,0.0,61,0.00,,,0.00,VWS V13.01,2013-05-08 07:02:00,
2013-05-08 02:03:00,58.3,44.9,31.01,South,190,0.0,0.0,61,0.00,,,0.00,VWS V13.01,2013-05-08 07:03:00,
2013-05-08 02:04:00,58.3,44.9,31.01,South,190,0.0,0.0,61,0.00,,,0.00,VWS V13.01,2013-05-08 07:04:00,
2013-05-08 02:07:00,58.6,45.2,31.01,South,190,0.0,0.0,61,0.00,,,0.00,VWS V13.01,2013-05-08 07:07:00,
2013-05-08 02:08:00,58.6,45.2,31.01,South,190,0.0,0.0,61,0.00,,,0.00,VWS V13.01,2013-05-08 07:08:00,
2013-05-08 02:09:00,58.6,45.2,31.01,South,190,0.0,0.0,61,0.00,,,0.00,VWS V13.01,2013-05-08 07:09:00,
2013-05-08 02:12:00,58.8,45.4,31.01,South,190,0.0,0.0,61,0.00,,,0.00,VWS V13.01,2013-05-08 07:12:00,
2013-05-08 02:13:00,58.8,45.4,31.01,South,190,0.0,0.0,61,0.00,,,0.00,VWS V13.01,2013-05-08 07:13:00,
2013-05-08 02:14:00,58.8,45.4,31.01,South,190,0.0,0.0,61,0.00,,,0.00,VWS V13.01,2013-05-08 07:14:00,
2013-05-08 02:17:00,58.8,45.4,31.01,South,190,0.0,0.0,61,0.00,,,0.00,VWS V13.01,2013-05-08 07:17:00,
2013-05-08 02:18:00,58.8,45.4,31.01,South,190,0.0,0.0,61,0.00,,,0.00,VWS V13.01,2013-05-08 07:18:00,
2013-05-08 02:19:00,58.8,45.4,31.01,South,190,0.0,0.0,61,0.00,,,0.00,VWS V13.01,2013-05-08 07:19:00,
2013-05-08 02:22:00,58.5,45.1,31.01,South,190,0.0,0.0,61,0.00,,,0.00,VWS V13.01,2013-05-08 07:22:00,
2013-05-08 02:23:00,58.3,44.9,31.01,South,190,0.0,0.0,61,0.00,,,0.00,VWS V13.01,2013-05-08 07:23:00,
2013-05-08 02:24:00,58.3,44.9,31.01,South,190,0.0,0.0,61,0.00,,,0.00,VWS V13.01,2013-05-08 07:24:00,
2013-05-08 02:27:00,58.1,44.7,31.01,South,190,0.0,0.0,61,0.00,,,0.00,VWS V13.01,2013-05-08 07:27:00,
2013-05-08 02:28:00,58.1,44.7,31.01,South,190,0.0,0.0,61,0.00,,,0.00,VWS V13.01,2013-05-08 07:28:00,
2013-05-08 02:29:00,58.1,44.7,31.01,South,190,0.0,0.0,61,0.00,,,0.00,VWS V13.01,2013-05-08 07:29:00,
2013-05-08 02:32:00,58.1,44.7,31.01,South,190,0.0,0.0,61,0.00,,,0.00,VWS V13.01,2013-05-08 07:32:00,
2013-05-08 02:33:00,58.1,44.7,31.01,South,190,0.0,0.0,61,0.00,,,0.00,VWS V13.01,2013-05-08 07:33:00,
2013-05-08 02:34:00,58.1,44.7,31.01,South,190,0.0,0.0,61,0.00,,,0.00,VWS V13.01,2013-05-08 07:34:00,
2013-05-08 02:38:00,58.5,45.1,31.01,South,190,0.0,0.0,61,0.00,,,0.00,VWS V13.01,2013-05-08 07:38:00,
2013-05-08 02:39:00,58.5,45.1,31.01,South,190,0.0,0.0,61,0.00,,,0.00,VWS V13.01,2013-05-08 07:39:00,
2013-05-08 02:40:00,58.5,45.1,31.01,South,190,0.0,0.0,61,0.00,,,0.00,VWS V13.01,2013-05-08 07:40:00,
2013-05-08 02:43:00,58.6,45.2,31.01,South,190,0.0,0.0,61,0.00,,,0.00,VWS V13.01,2013-05-08 07:43:00,
2013-05-08 02:44:00,58.8,45.4,31.01,South,190,0.0,0.0,61,0.00,,,0.00,VWS V13.01,2013-05-08 07:44:00,
2013-05-08 02:45:00,58.8,45.4,31.01,South,190,0.0,0.0,61,0.00,,,0.00,VWS V13.01,2013-05-08 07:45:00,
2013-05-08 02:48:00,58.8,45.4,31.01,South,190,0.0,0.0,61,0.00,,,0.00,VWS V13.01,2013-05-08 07:48:00,
2013-05-08 02:49:00,58.8,45.4,31.01,South,190,0.0,0.0,61,0.00,,,0.00,VWS V13.01,2013-05-08 07:49:00,
2013-05-08 02:50:00,58.8,45.4,31.01,South,190,0.0,0.0,61,0.00,,,0.00,VWS V13.01,2013-05-08 07:50:00,
2013-05-08 02:53:00,58.8,45.4,31.01,South,190,0.0,0.0,61,0.00,,,0.00,VWS V13.01,2013-05-08 07:53:00,
2013-05-08 02:54:00,58.6,45.2,31.01,South,190,0.0,0.0,61,0.00,,,0.00,VWS V13.01,2013-05-08 07:54:00,
2013-05-08 02:55:00,58.6,45.2,31.01,South,190,0.0,0.0,61,0.00,,,0.00,VWS V13.01,2013-05-08 07:55:00,
2013-05-08 02:58:00,58.6,45.2,31.01,South,190,0.0,0.0,61,0.00,,,0.00,VWS V13.01,2013-05-08 07:58:00,
2013-05-08 02:59:00,58.6,45.2,31.01,South,190,0.0,0.0,61,0.00,,,0.00,VWS V13.01,2013-05-08 07:59:00,
2013-05-08 03:00:00,58.6,45.2,31.01,South,190,0.0,0.0,61,0.00,,,0.00,VWS V13.01,2013-05-08 08:00:00,
2013-05-08 03:03:00,58.5,45.1,31.01,South,190,0.0,0.0,61,0.00,,,0.00,VWS V13.01,2013-05-08 08:03:00,
2013-05-08 03:04:00,58.5,45.1,31.01,South,190,0.0,0.0,61,0.00,,,0.00,VWS V13.01,2013-05-08 08:04:00,
2013-05-08 03:05:00,58.3,44.9,31.01,South,190,0.0,0.0,61,0.00,,,0.00,VWS V13.01,2013-05-08 08:05:00,
2013-05-08 03:08:00,58.1,44.7,31.01,South,190,0.0,0.0,61,0.00,,,0.00,VWS V13.01,2013-05-08 08:08:00,
2013-05-08 03:09:00,58.1,44.7,31.01,South,190,0.0,0.0,61,0.00,,,0.00,VWS V13.01,2013-05-08 08:09:00,
2013-05-08 03:10:00,58.1,44.7,31.01,South,190,0.0,0.0,61,0.00,,,0.00,VWS V13.01,2013-05-08 08:10:00,
2013-05-08 03:13:00,57.9,44.6,31.01,South,190,0.0,0.0,61,0.00,,,0.00,VWS V13.01,2013-05-08 08:13:00,
2013-05-08 03:14:00,57.9,44.6,31.01,South,190,0.0,0.0,61,0.00,,,0.00,VWS V13.01,2013-05-08 08:14:00,
2013-05-08 03:15:00,57.9,44.6,31.01,South,190,0.0,0.0,61,0.00,,,0.00,VWS V13.01,2013-05-08 08:15:00,
2013-05-08 03:18:00,57.7,44.4,31.01,South,190,0.0,0.0,61,0.00,,,0.00,VWS V13.01,2013-05-08 08:18:00,
2013-05-08 03:19:00,57.7,44.4,31.01,South,190,0.0,0.0,61,0.00,,,0.00,VWS V13.01,2013-05-08 08:19:00,
2013-05-08 03:20:00,57.7,44.4,31.01,South,190,0.0,0.0,61,0.00,,,0.00,VWS V13.01,2013-05-08 08:20:00,
2013-05-08 03:23:00,57.6,44.2,31.01,South,190,0.0,0.0,61,0.00,,,0.00,VWS V13.01,2013-05-08 08:23:00,
2013-05-08 03:24:00,57.6,44.2,31.01,South,190,0.0,0.0,61,0.00,,,0.00,VWS V13.01,2013-05-08 08:24:00,
2013-05-08 03:25:00,57.6,44.2,31.01,South,190,0.0,0.0,61,0.00,,,0.00,VWS V13.01,2013-05-08 08:25:00,
2013-05-08 03:28:00,57.6,44.2,31.01,South,190,0.0,0.0,61,0.00,,,0.00,VWS V13.01,2013-05-08 08:28:00,
2013-05-08 03:29:00,57.6,44.2,31.01,South,190,0.0,0.0,61,0.00,,,0.00,VWS V13.01,2013-05-08 08:29:00,
2013-05-08 03:30:00,57.7,44.4,31.01,South,190,0.0,0.0,61,0.00,,,0.00,VWS V13.01,2013-05-08 08:30:00,
2013-05-08 03:33:00,57.9,44.6,31.01,South,190,0.0,0.0,61,0.00,,,0.00,VWS V13.01,2013-05-08 08:33:00,
2013-05-08 03:34:00,57.7,44.4,31.01,South,190,0.0,0.0,61,0.00,,,0.00,VWS V13.01,2013-05-08 08:34:00,
2013-05-08 03:35:00,57.7,44.4,31.01,South,190,0.0,0.0,61,0.00,,,0.00,VWS V13.01,2013-05-08 08:35:00,
2013-05-08 03:36:00,57.7,44.4,31.01,South,190,0.0,0.0,61,0.00,,,0.00,VWS V13.01,2013-05-08 08:36:00,
2013-05-08 03:38:00,57.7,44.4,31.01,South,190,0.0,0.0,61,0.00,,,0.00,VWS V13.01,2013-05-08 08:38:00,
2013-05-08 03:39:00,57.7,44.4,31.01,South,190,0.0,0.0,61,0.00,,,0.00,VWS V13.01,2013-05-08 08:39:00,
2013-05-08 03:40:00,57.9,44.6,31.01,South,190,0.0,0.0,61,0.00,,,0.00,VWS V13.01,2013-05-08 08:40:00,
2013-05-08 03:41:00,57.9,44.6,31.01,South,190,0.0,0.0,61,0.00,,,0.00,VWS V13.01,2013-05-08 08:41:00,
2013-05-08 03:43:00,58.1,44.7,31.01,South,190,0.0,0.0,61,0.00,,,0.00,VWS V13.01,2013-05-08 08:43:00,
2013-05-08 03:44:00,58.1,44.7,31.01,South,190,0.0,0.0,61,0.00,,,0.00,VWS V13.01,2013-05-08 08:44:00,
2013-05-08 03:45:00,58.1,44.7,31.01,South,190,0.0,0.0,61,0.00,,,0.00,VWS V13.01,2013-05-08 08:45:00,
2013-05-08 03:46:00,58.1,44.7,31.01,South,190,0.0,0.0,61,0.00,,,0.00,VWS V13.01,2013-05-08 08:46:00,
2013-05-08 03:49:00,58.3,44.9,31.01,South,190,0.0,0.0,61,0.00,,,0.00,VWS V13.01,2013-05-08 08:49:00,
2013-05-08 03:50:00,58.3,44.9,31.01,South,190,0.0,0.0,61,0.00,,,0.00,VWS V13.01,2013-05-08 08:50:00,
2013-05-08 03:51:00,58.3,44.9,31.01,South,190,0.0,0.0,61,0.00,,,0.00,VWS V13.01,2013-05-08 08:51:00,
2013-05-08 03:54:00,58.5,45.1,31.01,South,190,0.0,0.0,61,0.00,,,0.00,VWS V13.01,2013-05-08 08:54:00,
2013-05-08 03:55:00,58.5,45.1,31.01,South,190,0.0,0.0,61,0.00,,,0.00,VWS V13.01,2013-05-08 08:55:00,
2013-05-08 03:56:00,58.5,45.1,31.01,South,190,0.0,0.0,61,0.00,,,0.00,VWS V13.01,2013-05-08 08:56:00,
2013-05-08 03:59:00,58.1,44.7,31.01,South,190,0.0,0.0,61,0.00,,,0.00,VWS V13.01,2013-05-08 08:59:00,
2013-05-08 04:00:00,58.1,44.7,31.01,South,190,0.0,0.0,61,0.00,,,0.00,VWS V13.01,2013-05-08 09:00:00,
2013-05-08 04:01:00,58.1,44.7,31.01,South,190,0.0,0.0,61,0.00,,,0.00,VWS V13.01,2013-05-08 09:01:00,
2013-05-08 04:04:00,57.9,44.6,31.01,South,190,0.0,0.0,61,0.00,,,0.00,VWS V13.01,2013-05-08 09:04:00,
2013-05-08 04:05:00,57.9,44.6,31.01,South,190,0.0,0.0,61,0.00,,,0.00,VWS V13.01,2013-05-08 09:05:00,
2013-05-08 04:06:00,57.9,44.6,31.01,South,190,0.0,0.0,61,0.00,,,0.00,VWS V13.01,2013-05-08 09:06:00,
2013-05-08 04:09:00,57.7,44.4,31.01,South,190,0.0,0.0,61,0.00,,,0.00,VWS V13.01,2013-05-08 09:09:00,
2013-05-08 04:10:00,57.7,44.4,31.01,South,190,0.0,0.0,61,0.00,,,0.00,VWS V13.01,2013-05-08 09:10:00,
2013-05-08 04:11:00,57.7,44.4,31.01,South,190,0.0,0.0,61,0.00,,,0.00,VWS V13.01,2013-05-08 09:11:00,
2013-05-08 04:14:00,57.7,44.4,31.01,South,190,0.0,0.0,61,0.00,,,0.00,VWS V13.01,2013-05-08 09:14:00,
2013-05-08 04:15:00,57.7,44.4,31.01,South,190,0.0,0.0,61,0.00,,,0.00,VWS V13.01,2013-05-08 09:15:00,
2013-05-08 04:16:00,57.7,44.4,31.01,South,190,0.0,0.0,61,0.00,,,0.00,VWS V13.01,2013-05-08 09:16:00,
2013-05-08 04:19:00,57.7,44.4,31.01,South,190,0.0,0.0,61,0.00,,,0.00,VWS V13.01,2013-05-08 09:19:00,
2013-05-08 04:20:00,57.7,44.4,31.01,South,190,0.0,0.0,61,0.00,,,0.00,VWS V13.01,2013-05-08 09:20:00,
2013-05-08 04:21:00,57.9,44.6,31.01,South,190,0.0,0.0,61,0.00,,,0.00,VWS V13.01,2013-05-08 09:21:00,
2013-05-08 04:24:00,58.1,44.7,31.01,South,190,0.0,0.0,61,0.00,,,0.00,VWS V13.01,2013-05-08 09:24:00,
2013-05-08 04:25:00,58.3,44.9,31.01,South,190,0.0,0.0,61,0.00,,,0.00,VWS V13.01,2013-05-08 09:25:00,
2013-05-08 04:26:00,58.3,44.9,31.01,South,190,0.0,0.0,61,0.00,,,0.00,VWS V13.01,2013-05-08 09:26:00,
2013-05-08 04:29:00,58.5,45.1,31.01,South,190,0.0,0.0,61,0.00,,,0.00,VWS V13.01,2013-05-08 09:29:00,
2013-05-08 04:30:00,58.6,45.2,31.01,South,190,0.0,0.0,61,0.00,,,0.00,VWS V13.01,2013-05-08 09:30:00,
2013-05-08 04:31:00,58.8,45.4,31.01,South,190,0.0,0.0,61,0.00,,,0.00,VWS V13.01,2013-05-08 09:31:00,
2013-05-08 04:34:00,59.0,45.6,31.01,South,190,0.0,0.0,61,0.00,,,0.00,VWS V13.01,2013-05-08 09:34:00,
2013-05-08 04:35:00,59.0,45.6,31.01,South,190,0.0,0.0,61,0.00,,,0.00,VWS V13.01,2013-05-08 09:35:00,
2013-05-08 04:36:00,59.2,45.8,31.01,South,190,0.0,0.0,61,0.00,,,0.00,VWS V13.01,2013-05-08 09:36:00,
2013-05-08 04:39:00,59.2,45.8,31.01,South,190,0.0,0.0,61,0.00,,,0.00,VWS V13.01,2013-05-08 09:39:00,
2013-05-08 04:40:00,59.2,45.8,31.01,South,190,0.0,0.0,61,0.00,,,0.00,VWS V13.01,2013-05-08 09:40:00,
2013-05-08 04:41:00,59.2,45.8,31.01,South,190,0.0,0.0,61,0.00,,,0.00,VWS V13.01,2013-05-08 09:41:00,
2013-05-08 04:44:00,59.4,45.9,31.01,South,190,0.0,0.0,61,0.00,,,0.00,VWS V13.01,2013-05-08 09:44:00,
2013-05-08 04:45:00,59.4,45.9,31.01,South,190,0.0,0.0,61,0.00,,,0.00,VWS V13.01,2013-05-08 09:45:00,
2013-05-08 04:46:00,59.2,45.8,31.01,South,190,0.0,0.0,61,0.00,,,0.00,VWS V13.01,2013-05-08 09:46:00,
2013-05-08 04:49:00,59.0,45.6,31.01,South,190,0.0,0.0,61,0.00,,,0.00,VWS V13.01,2013-05-08 09:49:00,
2013-05-08 04:50:00,59.0,45.6,31.01,South,190,0.0,0.0,61,0.00,,,0.00,VWS V13.01,2013-05-08 09:50:00,
2013-05-08 04:51:00,58.8,45.4,31.01,South,190,0.0,0.0,61,0.00,,,0.00,VWS V13.01,2013-05-08 09:51:00,
2013-05-08 04:54:00,58.5,45.1,31.01,South,190,0.0,0.0,61,0.00,,,0.00,VWS V13.01,2013-05-08 09:54:00,
2013-05-08 04:55:00,58.5,45.1,31.01,South,190,0.0,0.0,61,0.00,,,0.00,VWS V13.01,2013-05-08 09:55:00,
2013-05-08 04:56:00,58.1,44.7,31.01,South,190,0.0,0.0,61,0.00,,,0.00,VWS V13.01,2013-05-08 09:56:00,
2013-05-08 04:59:00,57.9,44.6,31.01,South,190,0.0,0.0,61,0.00,,,0.00,VWS V13.01,2013-05-08 09:59:00,
2013-05-08 05:00:00,57.7,44.4,31.01,South,190,0.0,0.0,61,0.00,,,0.00,VWS V13.01,2013-05-08 10:00:00,
2013-05-08 05:01:00,57.7,44.4,31.01,South,190,0.0,0.0,61,0.00,,,0.00,VWS V13.01,2013-05-08 10:01:00,
2013-05-08 05:04:00,57.6,44.2,31.01,South,190,0.0,0.0,61,0.00,,,0.00,VWS V13.01,2013-05-08 10:04:00,
2013-05-08 05:05:00,57.6,44.2,31.01,South,190,0.0,0.0,61,0.00,,,0.00,VWS V13.01,2013-05-08 10:05:00,
2013-05-08 05:06:00,57.6,44.2,31.01,South,190,0.0,0.0,61,0.00,,,0.00,VWS V13.01,2013-05-08 10:06:00,
2013-05-08 05:09:00,57.4,44.1,31.01,South,190,0.0,0.0,61,0.00,,,0.00,VWS V13.01,2013-05-08 10:09:00,
2013-05-08 05:10:00,57.4,44.1,31.01,South,190,0.0,0.0,61,0.00,,,0.00,VWS V13.01,2013-05-08 10:10:00,
2013-05-08 05:11:00,57.4,44.1,31.01,South,190,0.0,0.0,61,0.00,,,0.00,VWS V13.01,2013-05-08 10:11:00,
2013-05-08 05:12:00,57.4,44.1,31.01,South,190,0.0,0.0,61,0.00,,,0.00,VWS V13.01,2013-05-08 10:12:00,
2013-05-08 05:14:00,57.2,43.9,31.01,South,190,0.0,0.0,61,0.00,,,0.00,VWS V13.01,2013-05-08 10:14:00,
2013-05-08 05:15:00,57.2,43.9,31.01,South,190,0.0,0.0,61,0.00,,,0.00,VWS V13.01,2013-05-08 10:15:00,
2013-05-08 05:16:00,57.2,43.9,31.01,South,190,0.0,0.0,61,0.00,,,0.00,VWS V13.01,2013-05-08 10:16:00,
2013-05-08 05:17:00,57.2,43.9,31.01,South,190,0.0,0.0,61,0.00,,,0.00,VWS V13.01,2013-05-08 10:17:00,
2013-05-08 05:19:00,57.2,43.9,31.01,South,190,0.0,0.0,61,0.00,,,0.00,VWS V13.01,2013-05-08 10:19:00,
2013-05-08 05:20:00,57.2,43.9,31.01,South,190,0.0,0.0,61,0.00,,,0.00,VWS V13.01,2013-05-08 10:20:00,
2013-05-08 05:21:00,57.2,43.9,31.01,South,190,0.0,0.0,61,0.00,,,0.00,VWS V13.01,2013-05-08 10:21:00,
2013-05-08 05:22:00,57.2,43.9,31.01,South,190,0.0,0.0,61,0.00,,,0.00,VWS V13.01,2013-05-08 10:22:00,
2013-05-08 05:24:00,57.2,43.9,31.01,South,190,0.0,0.0,61,0.00,,,0.00,VWS V13.01,2013-05-08 10:24:00,
2013-05-08 05:25:00,57.2,43.9,31.01,South,190,0.0,0.0,61,0.00,,,0.00,VWS V13.01,2013-05-08 10:25:00,
2013-05-08 05:26:00,57.2,43.9,31.01,South,190,0.0,0.0,61,0.00,,,0.00,VWS V13.01,2013-05-08 10:26:00,
2013-05-08 05:27:00,57.2,43.9,31.01,South,190,0.0,0.0,61,0.00,,,0.00,VWS V13.01,2013-05-08 10:27:00,
2013-05-08 05:29:00,57.2,43.9,31.01,South,190,0.0,0.0,61,0.00,,,0.00,VWS V13.01,2013-05-08 10:29:00,
2013-05-08 05:31:00,57.2,43.9,31.01,South,190,0.0,0.0,61,0.00,,,0.00,VWS V13.01,2013-05-08 10:31:00,
2013-05-08 05:32:00,57.4,44.1,31.01,South,190,0.0,0.0,61,0.00,,,0.00,VWS V13.01,2013-05-08 10:32:00,
2013-05-08 05:34:00,57.6,44.2,31.01,South,190,0.0,0.0,61,0.00,,,0.00,VWS V13.01,2013-05-08 10:34:00,
2013-05-08 05:36:00,57.7,44.4,31.01,South,190,0.0,0.0,61,0.00,,,0.00,VWS V13.01,2013-05-08 10:36:00,
2013-05-08 05:37:00,57.9,44.6,31.01,South,190,0.0,0.0,61,0.00,,,0.00,VWS V13.01,2013-05-08 10:37:00,
2013-05-08 05:39:00,58.1,44.7,31.01,South,190,0.0,0.0,61,0.00,,,0.00,VWS V13.01,2013-05-08 10:39:00,
2013-05-08 05:41:00,58.3,44.9,31.01,South,190,0.0,0.0,61,0.00,,,0.00,VWS V13.01,2013-05-08 10:41:00,
2013-05-08 05:42:00,58.3,44.9,31.01,South,190,0.0,0.0,61,0.00,,,0.00,VWS V13.01,2013-05-08 10:42:00,
2013-05-08 05:44:00,58.3,44.9,31.01,South,190,0.0,0.0,61,0.00,,,0.00,VWS V13.01,2013-05-08 10:44:00,
2013-05-08 05:46:00,58.1,44.7,31.01,South,190,0.0,0.0,61,0.00,,,0.00,VWS V13.01,2013-05-08 10:46:00,
2013-05-08 05:47:00,58.1,44.7,31.01,South,190,0.0,0.0,61,0.00,,,0.00,VWS V13.01,2013-05-08 10:47:00,
2013-05-08 05:49:00,58.1,44.7,31.01,South,190,0.0,0.0,61,0.00,,,0.00,VWS V13.01,2013-05-08 10:49:00,
2013-05-08 05:51:00,58.1,44.7,31.01,South,190,0.0,0.0,61,0.00,,,0.00,VWS V13.01,2013-05-08 10:51:00,
2013-05-08 05:52:00,58.1,44.7,31.01,South,190,0.0,0.0,61,0.00,,,0.00,VWS V13.01,2013-05-08 10:52:00,
2013-05-08 05:53:00,57.9,44.6,31.01,South,190,0.0,0.0,61,0.00,,,0.00,VWS V13.01,2013-05-08 10:53:00,
2013-05-08 05:54:00,57.9,44.6,31.01,South,190,0.0,0.0,61,0.00,,,0.00,VWS V13.01,2013-05-08 10:54:00,
2013-05-08 05:56:00,57.7,44.4,31.01,South,190,0.0,0.0,61,0.00,,,0.00,VWS V13.01,2013-05-08 10:56:00,
2013-05-08 05:57:00,57.7,44.4,31.01,South,190,0.0,0.0,61,0.00,,,0.00,VWS V13.01,2013-05-08 10:57:00,
2013-05-08 05:58:00,57.6,44.2,31.01,South,190,0.0,0.0,61,0.00,,,0.00,VWS V13.01,2013-05-08 10:58:00,
2013-05-08 05:59:00,57.6,44.2,31.01,South,190,0.0,0.0,61,0.00,,,0.00,VWS V13.01,2013-05-08 10:59:00,
2013-05-08 06:01:00,57.4,44.1,31.01,South,190,0.0,0.0,61,0.00,,,0.00,VWS V13.01,2013-05-08 11:01:00,
2013-05-08 06:02:00,57.4,44.1,31.01,South,190,0.0,0.0,61,0.00,,,0.00,VWS V13.01,2013-05-08 11:02:00,
2013-05-08 06:03:00,57.2,43.9,31.01,South,190,0.0,0.0,61,0.00,,,0.00,VWS V13.01,2013-05-08 11:03:00,
2013-05-08 06:04:00,57.2,43.9,31.01,South,190,0.0,0.0,61,0.00,,,0.00,VWS V13.01,2013-05-08 11:04:00,
2013-05-08 06:06:00,57.0,46.2,31.01,South,190,0.0,0.0,67,0.00,,,0.00,VWS V13.01,2013-05-08 11:06:00,
2013-05-08 06:07:00,57.0,46.2,31.01,South,190,0.0,0.0,67,0.00,,,0.00,VWS V13.01,2013-05-08 11:07:00,
2013-05-08 06:08:00,57.0,46.2,31.01,South,190,0.0,0.0,67,0.00,,,0.00,VWS V13.01,2013-05-08 11:08:00,
2013-05-08 06:09:00,57.0,46.2,31.01,South,190,0.0,0.0,67,0.00,,,0.00,VWS V13.01,2013-05-08 11:09:00,
2013-05-08 06:11:00,56.8,46.0,31.01,South,190,0.0,0.0,67,0.00,,,0.00,VWS V13.01,2013-05-08 11:11:00,
2013-05-08 06:12:00,56.8,46.0,31.01,South,190,0.0,0.0,67,0.00,,,0.00,VWS V13.01,2013-05-08 11:12:00,
2013-05-08 06:13:00,56.8,46.0,31.01,South,190,0.0,0.0,67,0.00,,,0.00,VWS V13.01,2013-05-08 11:13:00,
2013-05-08 06:14:00,56.8,46.0,31.01,South,190,0.0,0.0,67,0.00,,,0.00,VWS V13.01,2013-05-08 11:14:00,
2013-05-08 06:16:00,56.8,46.0,31.01,South,190,0.0,0.0,67,0.00,,,0.00,VWS V13.01,2013-05-08 11:16:00,
2013-05-08 06:17:00,56.8,46.0,31.01,South,190,0.0,0.0,67,0.00,,,0.00,VWS V13.01,2013-05-08 11:17:00,
2013-05-08 06:18:00,56.8,46.0,31.01,South,190,0.0,0.0,67,0.00,,,0.00,VWS V13.01,2013-05-08 11:18:00,
2013-05-08 06:20:00,56.8,46.0,31.01,South,190,0.0,0.0,67,0.00,,,0.00,VWS V13.01,2013-05-08 11:20:00,
2013-05-08 06:21:00,56.8,46.0,31.01,South,190,0.0,0.0,67,0.00,,,0.00,VWS V13.01,2013-05-08 11:21:00,
2013-05-08 06:22:00,56.8,46.0,31.01,South,190,0.0,0.0,67,0.00,,,0.00,VWS V13.01,2013-05-08 11:22:00,
2013-05-08 06:23:00,56.8,46.0,31.01,South,190,0.0,0.0,67,0.00,,,0.00,VWS V13.01,2013-05-08 11:23:00,
2013-05-08 06:25:00,56.8,46.0,31.01,South,190,0.0,0.0,67,0.00,,,0.00,VWS V13.01,2013-05-08 11:25:00,
2013-05-08 06:26:00,56.8,46.0,31.01,South,190,0.0,0.0,67,0.00,,,0.00,VWS V13.01,2013-05-08 11:26:00,
2013-05-08 06:27:00,56.8,46.0,31.01,South,190,0.0,0.0,67,0.00,,,0.00,VWS V13.01,2013-05-08 11:27:00,
2013-05-08 06:28:00,56.8,46.0,31.01,South,190,0.0,0.0,67,0.00,,,0.00,VWS V13.01,2013-05-08 11:28:00,
2013-05-08 06:30:00,57.0,46.2,31.01,South,190,0.0,0.0,67,0.00,,,0.00,VWS V13.01,2013-05-08 11:30:00,
2013-05-08 06:31:00,57.0,46.2,31.01,South,190,0.0,0.0,67,0.00,,,0.00,VWS V13.01,2013-05-08 11:31:00,
2013-05-08 06:32:00,57.0,46.2,31.01,South,190,0.0,0.0,67,0.00,,,0.00,VWS V13.01,2013-05-08 11:32:00,
2013-05-08 06:33:00,57.0,46.2,31.01,South,190,0.0,0.0,67,0.00,,,0.00,VWS V13.01,2013-05-08 11:33:00,
2013-05-08 06:35:00,56.8,46.0,31.01,South,190,0.0,0.0,67,0.00,,,0.00,VWS V13.01,2013-05-08 11:35:00,
2013-05-08 06:36:00,56.8,46.0,31.01,South,190,0.0,0.0,67,0.00,,,0.00,VWS V13.01,2013-05-08 11:36:00,
2013-05-08 06:37:00,57.0,46.2,31.01,South,190,0.0,0.0,67,0.00,,,0.00,VWS V13.01,2013-05-08 11:37:00,
2013-05-08 06:38:00,57.0,46.2,31.01,South,190,0.0,0.0,67,0.00,,,0.00,VWS V13.01,2013-05-08 11:38:00,
2013-05-08 06:40:00,57.4,44.1,31.01,South,190,0.0,0.0,61,0.00,,,0.00,VWS V13.01,2013-05-08 11:40:00,
2013-05-08 06:41:00,57.6,44.2,31.01,South,190,0.0,0.0,61,0.00,,,0.00,VWS V13.01,2013-05-08 11:41:00,
2013-05-08 06:42:00,57.6,44.2,31.01,South,190,0.0,0.0,61,0.00,,,0.00,VWS V13.01,2013-05-08 11:42:00,
2013-05-08 06:43:00,57.9,44.6,31.01,South,190,0.0,0.0,61,0.00,,,0.00,VWS V13.01,2013-05-08 11:43:00,
2013-05-08 06:45:00,58.5,45.1,31.01,South,190,0.0,0.0,61,0.00,,,0.00,VWS V13.01,2013-05-08 11:45:00,
2013-05-08 06:46:00,59.0,45.6,31.01,South,190,0.0,0.0,61,0.00,,,0.00,VWS V13.01,2013-05-08 11:46:00,
2013-05-08 06:47:00,59.4,45.9,31.01,South,190,0.0,0.0,61,0.00,,,0.00,VWS V13.01,2013-05-08 11:47:00,
2013-05-08 06:48:00,59.7,46.3,31.01,South,190,0.0,0.0,61,0.00,,,0.00,VWS V13.01,2013-05-08 11:48:00,
2013-05-08 06:50:00,60.4,46.9,31.01,South,190,0.0,0.0,61,0.00,,,0.00,VWS V13.01,2013-05-08 11:50:00,
2013-05-08 06:51:00,60.8,47.3,31.01,South,190,0.0,0.0,61,0.00,,,0.00,VWS V13.01,2013-05-08 11:51:00,
2013-05-08 06:52:00,60.8,47.3,31.01,South,190,0.0,0.0,61,0.00,,,0.00,VWS V13.01,2013-05-08 11:52:00,
2013-05-08 06:53:00,60.8,47.3,31.01,South,190,0.0,0.0,61,0.00,,,0.00,VWS V13.01,2013-05-08 11:53:00,
2013-05-08 06:55:00,60.6,47.1,31.01,South,190,0.0,0.0,61,0.00,,,0.00,VWS V13.01,2013-05-08 11:55:00,
2013-05-08 06:56:00,60.6,47.1,31.01,South,190,0.0,0.0,61,0.00,,,0.00,VWS V13.01,2013-05-08 11:56:00,
2013-05-08 06:57:00,60.6,47.1,31.01,South,190,0.0,0.0,61,0.00,,,0.00,VWS V13.01,2013-05-08 11:57:00,
2013-05-08 06:58:00,60.4,46.9,31.01,South,190,0.0,0.0,61,0.00,,,0.00,VWS V13.01,2013-05-08 11:58:00,
2013-05-08 07:00:00,60.3,46.8,31.01,South,190,0.0,0.0,61,0.00,,,0.00,VWS V13.01,2013-05-08 12:00:00,
2013-05-08 07:01:00,60.3,46.8,31.01,South,190,0.0,0.0,61,0.00,,,0.00,VWS V13.01,2013-05-08 12:01:00,
2013-05-08 07:02:00,60.1,46.6,31.01,South,190,0.0,0.0,61,0.00,,,0.00,VWS V13.01,2013-05-08 12:02:00,
2013-05-08 07:04:00,60.1,46.6,31.01,South,190,0.0,0.0,61,0.00,,,0.00,VWS V13.01,2013-05-08 12:04:00,
2013-05-08 07:05:00,59.9,46.4,31.01,South,190,0.0,0.0,61,0.00,,,0.00,VWS V13.01,2013-05-08 12:05:00,
2013-05-08 07:07:00,59.9,46.4,31.01,South,190,0.0,0.0,61,0.00,,,0.00,VWS V13.01,2013-05-08 12:07:00,
2013-05-08 07:08:00,59.9,46.4,31.01,South,190,0.0,0.0,61,0.00,,,0.00,VWS V13.01,2013-05-08 12:08:00,
2013-05-08 07:09:00,59.9,46.4,31.01,South,190,0.0,0.0,61,0.00,,,0.00,VWS V13.01,2013-05-08 12:09:00,
2013-05-08 07:10:00,59.9,46.4,31.01,South,190,0.0,0.0,61,0.00,,,0.00,VWS V13.01,2013-05-08 12:10:00,
2013-05-08 07:12:00,59.9,46.4,31.01,South,190,0.0,0.0,61,0.00,,,0.00,VWS V13.01,2013-05-08 12:12:00,
2013-05-08 07:13:00,59.9,46.4,31.01,South,190,0.0,0.0,61,0.00,,,0.00,VWS V13.01,2013-05-08 12:13:00,
2013-05-08 07:14:00,59.9,46.4,31.01,South,190,0.0,0.0,61,0.00,,,0.00,VWS V13.01,2013-05-08 12:14:00,
2013-05-08 07:15:00,59.9,46.4,31.01,West,262,0.0,0.0,61,0.00,,,0.00,VWS V13.01,2013-05-08 12:15:00,
2013-05-08 07:17:00,60.1,46.6,31.01,West,269,4.0,4.0,61,0.00,,,0.00,VWS V13.01,2013-05-08 12:17:00,
2013-05-08 07:18:00,60.1,46.6,31.01,West,275,4.0,4.0,61,0.00,,,0.00,VWS V13.01,2013-05-08 12:18:00,
2013-05-08 07:19:00,59.9,46.4,31.01,WNW,295,4.0,4.0,61,0.00,,,0.00,VWS V13.01,2013-05-08 12:19:00,
2013-05-08 07:20:00,59.7,46.3,31.01,WNW,288,0.0,0.0,61,0.00,,,0.00,VWS V13.01,2013-05-08 12:20:00,
2013-05-08 07:22:00,59.7,46.3,31.01,WNW,288,0.0,0.0,61,0.00,,,0.00,VWS V13.01,2013-05-08 12:22:00,
2013-05-08 07:23:00,59.5,46.1,31.01,WNW,288,0.0,0.0,61,0.00,,,0.00,VWS V13.01,2013-05-08 12:23:00,
2013-05-08 07:24:00,59.5,46.1,31.01,WNW,288,0.0,0.0,61,0.00,,,0.00,VWS V13.01,2013-05-08 12:24:00,
2013-05-08 07:25:00,59.5,46.1,31.01,WNW,288,0.0,0.0,61,0.00,,,0.00,VWS V13.01,2013-05-08 12:25:00,
2013-05-08 07:27:00,59.5,46.1,31.01,WNW,288,0.0,0.0,61,0.00,,,0.00,VWS V13.01,2013-05-08 12:27:00,
2013-05-08 07:28:00,59.5,46.1,31.01,WNW,288,0.0,0.0,61,0.00,,,0.00,VWS V13.01,2013-05-08 12:28:00,
2013-05-08 07:29:00,59.5,46.1,31.01,WNW,288,0.0,0.0,61,0.00,,,0.00,VWS V13.01,2013-05-08 12:29:00,
2013-05-08 07:30:00,59.5,46.1,31.01,South,187,0.0,0.0,61,0.00,,,0.00,VWS V13.01,2013-05-08 12:30:00,
2013-05-08 07:32:00,59.5,46.1,31.01,South,187,0.0,0.0,61,0.00,,,0.00,VWS V13.01,2013-05-08 12:32:00,
2013-05-08 07:33:00,59.7,46.3,31.01,South,187,0.0,0.0,61,0.00,,,0.00,VWS V13.01,2013-05-08 12:33:00,
2013-05-08 07:35:00,59.9,46.4,31.01,South,187,0.0,0.0,61,0.00,,,0.00,VWS V13.01,2013-05-08 12:35:00,
2013-05-08 07:37:00,60.4,46.9,31.01,South,187,0.0,0.0,61,0.00,,,0.00,VWS V13.01,2013-05-08 12:37:00,
2013-05-08 07:38:00,60.6,47.1,31.01,South,187,0.0,0.0,61,0.00,,,0.00,VWS V13.01,2013-05-08 12:38:00,
2013-05-08 07:40:00,61.2,47.6,31.01,South,187,0.0,0.0,61,0.00,,,0.00,VWS V13.01,2013-05-08 12:40:00,
2013-05-08 07:42:00,61.5,48.0,31.01,South,187,0.0,0.0,61,0.00,,,0.00,VWS V13.01,2013-05-08 12:42:00,
2013-05-08 07:43:00,61.7,48.1,31.01,South,187,0.0,0.0,61,0.00,,,0.00,VWS V13.01,2013-05-08 12:43:00,
2013-05-08 07:45:00,61.9,48.3,31.01,South,187,0.0,0.0,61,0.00,,,0.00,VWS V13.01,2013-05-08 12:45:00,
2013-05-08 07:46:00,61.9,48.3,31.01,South,187,0.0,0.0,61,0.00,,,0.00,VWS V13.01,2013-05-08 12:46:00,
2013-05-08 07:47:00,61.9,48.3,31.01,South,187,0.0,0.0,61,0.00,,,0.00,VWS V13.01,2013-05-08 12:47:00,
2013-05-08 07:48:00,61.9,48.3,31.01,South,187,0.0,0.0,61,0.00,,,0.00,VWS V13.01,2013-05-08 12:48:00,
2013-05-08 07:50:00,61.9,48.3,31.01,South,187,0.0,0.0,61,0.00,,,0.00,VWS V13.01,2013-05-08 12:50:00,
2013-05-08 07:51:00,61.7,48.1,31.01,South,187,0.0,0.0,61,0.00,,,0.00,VWS V13.01,2013-05-08 12:51:00,
2013-05-08 07:52:00,61.7,48.1,31.01,South,187,0.0,0.0,61,0.00,,,0.00,VWS V13.01,2013-05-08 12:52:00,
2013-05-08 07:53:00,61.7,48.1,31.01,South,187,0.0,0.0,61,0.00,,,0.00,VWS V13.01,2013-05-08 12:53:00,
2013-05-08 07:55:00,61.9,48.3,31.01,South,187,0.0,0.0,61,0.00,,,0.00,VWS V13.01,2013-05-08 12:55:00,
2013-05-08 07:56:00,61.9,48.3,31.01,South,187,0.0,0.0,61,0.00,,,0.00,VWS V13.01,2013-05-08 12:56:00,
2013-05-08 07:57:00,61.9,48.3,31.01,South,187,0.0,0.0,61,0.00,,,0.00,VWS V13.01,2013-05-08 12:57:00,
2013-05-08 07:58:00,61.9,48.3,31.01,South,187,0.0,0.0,61,0.00,,,0.00,VWS V13.01,2013-05-08 12:58:00,
2013-05-08 07:59:00,62.1,48.5,31.01,South,187,0.0,0.0,61,0.00,,,0.00,VWS V13.01,2013-05-08 12:59:00,
2013-05-08 08:00:00,62.1,48.5,31.01,South,187,0.0,0.0,61,0.00,,,0.00,VWS V13.01,2013-05-08 13:00:00,
2013-05-08 08:01:00,62.2,48.6,31.01,South,187,0.0,0.0,61,0.00,,,0.00,VWS V13.01,2013-05-08 13:01:00,
2013-05-08 08:02:00,62.2,48.6,31.01,South,187,0.0,0.0,61,0.00,,,0.00,VWS V13.01,2013-05-08 13:02:00,
2013-05-08 08:03:00,62.2,48.6,31.01,South,187,0.0,0.0,61,0.00,,,0.00,VWS V13.01,2013-05-08 13:03:00,
2013-05-08 08:04:00,62.2,48.6,31.01,South,187,0.0,0.0,61,0.00,,,0.00,VWS V13.01,2013-05-08 13:04:00,
2013-05-08 08:05:00,62.4,48.8,31.01,South,187,0.0,0.0,61,0.00,,,0.00,VWS V13.01,2013-05-08 13:05:00,
2013-05-08 08:06:00,62.4,48.8,31.01,South,187,0.0,0.0,61,0.00,,,0.00,VWS V13.01,2013-05-08 13:06:00,
2013-05-08 08:07:00,62.6,46.2,31.01,South,187,0.0,0.0,55,0.00,,,0.00,VWS V13.01,2013-05-08 13:07:00,
2013-05-08 08:08:00,62.6,46.2,31.01,South,187,0.0,0.0,55,0.00,,,0.00,VWS V13.01,2013-05-08 13:08:00,
2013-05-08 08:09:00,62.8,46.4,31.01,South,187,0.0,0.0,55,0.00,,,0.00,VWS V13.01,2013-05-08 13:09:00,
2013-05-08 08:10:00,62.8,46.4,31.01,South,187,0.0,0.0,55,0.00,,,0.00,VWS V13.01,2013-05-08 13:10:00,
2013-05-08 08:11:00,63.1,46.7,31.01,South,187,0.0,0.0,55,0.00,,,0.00,VWS V13.01,2013-05-08 13:11:00,
2013-05-08 08:13:00,63.5,47.1,31.01,South,187,0.0,0.0,55,0.00,,,0.00,VWS V13.01,2013-05-08 13:13:00,
2013-05-08 08:14:00,64.0,47.6,31.01,South,187,0.0,0.0,55,0.00,,,0.00,VWS V13.01,2013-05-08 13:14:00,
2013-05-08 08:15:00,64.2,47.7,31.01,South,187,0.0,0.0,55,0.00,,,0.00,VWS V13.01,2013-05-08 13:15:00,
2013-05-08 08:16:00,64.4,47.9,31.01,South,187,0.0,0.0,55,0.00,,,0.00,VWS V13.01,2013-05-08 13:16:00,
2013-05-08 08:18:00,64.4,47.9,31.01,South,187,0.0,0.0,55,0.00,,,0.00,VWS V13.01,2013-05-08 13:18:00,
2013-05-08 08:19:00,64.4,47.9,31.01,South,187,0.0,0.0,55,0.00,,,0.00,VWS V13.01,2013-05-08 13:19:00,
2013-05-08 08:20:00,64.2,47.7,31.01,South,187,0.0,0.0,55,0.00,,,0.00,VWS V13.01,2013-05-08 13:20:00,
2013-05-08 08:22:00,64.2,47.7,31.01,South,187,0.0,0.0,55,0.00,,,0.00,VWS V13.01,2013-05-08 13:22:00,
2013-05-08 08:23:00,64.2,47.7,31.01,South,187,0.0,0.0,55,0.00,,,0.00,VWS V13.01,2013-05-08 13:23:00,
2013-05-08 08:24:00,64.0,47.6,31.01,South,187,0.0,0.0,55,0.00,,,0.00,VWS V13.01,2013-05-08 13:24:00,
2013-05-08 08:25:00,64.0,47.6,31.01,South,187,0.0,0.0,55,0.00,,,0.00,VWS V13.01,2013-05-08 13:25:00,
2013-05-08 08:27:00,64.2,47.7,31.01,South,187,0.0,0.0,55,0.00,,,0.00,VWS V13.01,2013-05-08 13:27:00,
2013-05-08 08:28:00,64.2,47.7,31.01,South,187,0.0,0.0,55,0.00,,,0.00,VWS V13.01,2013-05-08 13:28:00,
2013-05-08 08:29:00,64.4,47.9,31.01,South,187,0.0,0.0,55,0.00,,,0.00,VWS V13.01,2013-05-08 13:29:00,
2013-05-08 08:31:00,64.8,48.2,31.01,South,187,0.0,0.0,55,0.00,,,0.00,VWS V13.01,2013-05-08 13:31:00,
2013-05-08 08:32:00,65.1,48.6,31.01,South,187,0.0,0.0,55,0.00,,,0.00,VWS V13.01,2013-05-08 13:32:00,
2013-05-08 08:33:00,65.5,48.9,31.01,South,187,0.0,0.0,55,0.00,,,0.00,VWS V13.01,2013-05-08 13:33:00,
2013-05-08 08:34:00,65.5,48.9,31.01,South,187,0.0,0.0,55,0.00,,,0.00,VWS V13.01,2013-05-08 13:34:00,
2013-05-08 08:36:00,65.8,49.2,31.01,South,187,0.0,0.0,55,0.00,,,0.00,VWS V13.01,2013-05-08 13:36:00,
2013-05-08 08:37:00,66.0,49.4,31.01,South,187,0.0,0.0,55,0.00,,,0.00,VWS V13.01,2013-05-08 13:37:00,
2013-05-08 08:38:00,65.7,49.1,31.01,South,187,0.0,0.0,55,0.00,,,0.00,VWS V13.01,2013-05-08 13:38:00,
2013-05-08 08:39:00,65.5,48.9,31.01,South,187,0.0,0.0,55,0.00,,,0.00,VWS V13.01,2013-05-08 13:39:00,
2013-05-08 08:41:00,65.1,48.6,31.01,South,186,0.0,0.0,55,0.00,,,0.00,VWS V13.01,2013-05-08 13:41:00,
2013-05-08 08:42:00,64.9,48.4,31.01,South,183,0.0,0.0,55,0.00,,,0.00,VWS V13.01,2013-05-08 13:42:00,
2013-05-08 08:43:00,64.6,48.1,31.01,South,183,0.0,0.0,55,0.00,,,0.00,VWS V13.01,2013-05-08 13:43:00,
2013-05-08 08:45:00,64.4,47.9,31.01,South,171,0.0,0.0,55,0.00,,,0.00,VWS V13.01,2013-05-08 13:45:00,
2013-05-08 08:46:00,64.4,47.9,31.01,South,179,4.5,4.5,55,0.00,,,0.00,VWS V13.01,2013-05-08 13:46:00,
2013-05-08 08:47:00,64.4,47.9,31.01,South,182,4.9,4.9,55,0.00,,,0.00,VWS V13.01,2013-05-08 13:47:00,
2013-05-08 08:48:00,64.4,47.9,31.01,South,179,3.6,3.6,55,0.00,,,0.00,VWS V13.01,2013-05-08 13:48:00,
2013-05-08 08:50:00,64.4,47.9,31.01,SSW,192,4.0,4.0,55,0.00,,,0.00,VWS V13.01,2013-05-08 13:50:00,
2013-05-08 08:51:00,64.4,47.9,31.01,South,185,4.0,4.0,55,0.00,,,0.00,VWS V13.01,2013-05-08 13:51:00,
2013-05-08 08:52:00,64.4,47.9,31.01,South,188,5.4,5.4,55,0.00,,,0.00,VWS V13.01,2013-05-08 13:52:00,
2013-05-08 08:53:00,64.0,47.6,31.01,SSW,192,5.4,5.4,55,0.00,,,0.00,VWS V13.01,2013-05-08 13:53:00,
2013-05-08 08:54:00,63.9,47.4,31.01,SSW,192,5.4,5.4,55,0.00,,,0.00,VWS V13.01,2013-05-08 13:54:00,
2013-05-08 08:55:00,63.9,47.4,31.01,South,190,6.3,6.3,55,0.00,,,0.00,VWS V13.01,2013-05-08 13:55:00,
2013-05-08 08:56:00,63.9,47.4,31.01,South,186,3.6,3.6,55,0.00,,,0.00,VWS V13.01,2013-05-08 13:56:00,
2013-05-08 08:57:00,64.0,47.6,31.01,South,185,4.9,4.9,55,0.00,,,0.00,VWS V13.01,2013-05-08 13:57:00,
2013-05-08 08:58:00,64.2,47.7,31.01,South,183,3.6,3.6,55,0.00,,,0.00,VWS V13.01,2013-05-08 13:58:00,
2013-05-08 08:59:00,64.2,47.7,31.01,South,183,3.6,3.6,55,0.00,,,0.00,VWS V13.01,2013-05-08 13:59:00,
2013-05-08 09:00:00,64.2,47.7,31.01,South,178,4.9,4.9,55,0.00,,,0.00,VWS V13.01,2013-05-08 14:00:00,
2013-05-08 09:01:00,64.0,47.6,31.01,South,183,5.8,5.8,55,0.00,,,0.00,VWS V13.01,2013-05-08 14:01:00,
2013-05-08 09:02:00,64.2,47.7,31.01,South,169,4.0,4.0,55,0.00,,,0.00,VWS V13.01,2013-05-08 14:02:00,
2013-05-08 09:03:00,64.2,47.7,31.01,South,176,4.0,4.0,55,0.00,,,0.00,VWS V13.01,2013-05-08 14:03:00,
2013-05-08 09:04:00,64.2,47.7,31.01,South,176,4.0,4.0,55,0.00,,,0.00,VWS V13.01,2013-05-08 14:04:00,
2013-05-08 09:05:00,64.2,47.7,31.01,South,188,5.4,5.4,55,0.00,,,0.00,VWS V13.01,2013-05-08 14:05:00,
2013-05-08 09:06:00,64.2,47.7,31.01,South,184,4.0,4.0,55,0.00,,,0.00,VWS V13.01,2013-05-08 14:06:00,
2013-05-08 09:07:00,64.2,47.7,31.01,South,185,5.4,5.4,55,0.00,,,0.00,VWS V13.01,2013-05-08 14:07:00,
2013-05-08 09:08:00,64.4,47.9,31.01,South,180,4.0,4.0,55,0.00,,,0.00,VWS V13.01,2013-05-08 14:08:00,
2013-05-08 09:09:00,64.4,47.9,31.01,South,185,5.4,5.4,55,0.00,,,0.00,VWS V13.01,2013-05-08 14:09:00,
2013-05-08 09:10:00,64.2,47.7,31.01,South,191,6.3,6.3,55,0.00,,,0.00,VWS V13.01,2013-05-08 14:10:00,
2013-05-08 09:11:00,64.2,47.7,31.01,South,185,5.4,5.4,55,0.00,,,0.00,VWS V13.01,2013-05-08 14:11:00,
2013-05-08 09:12:00,64.2,47.7,31.01,SSW,192,6.3,6.3,55,0.00,,,0.00,VWS V13.01,2013-05-08 14:12:00,
2013-05-08 09:14:00,64.2,47.7,31.01,SSW,193,4.9,4.9,55,0.00,,,0.00,VWS V13.01,2013-05-08 14:14:00,
2013-05-08 09:15:00,64.2,47.7,31.01,South,185,5.4,5.4,55,0.00,,,0.00,VWS V13.01,2013-05-08 14:15:00,
2013-05-08 09:16:00,64.4,47.9,31.01,South,185,4.0,4.0,55,0.00,,,0.00,VWS V13.01,2013-05-08 14:16:00,
2013-05-08 09:17:00,64.2,47.7,31.01,South,181,5.4,5.4,55,0.00,,,0.00,VWS V13.01,2013-05-08 14:17:00,
2013-05-08 09:18:00,64.0,47.6,31.01,South,182,6.3,6.3,55,0.00,,,0.00,VWS V13.01,2013-05-08 14:18:00,
2013-05-08 09:19:00,64.0,47.6,31.01,South,186,8.3,8.3,55,0.00,,,0.00,VWS V13.01,2013-05-08 14:19:00,
2013-05-08 09:20:00,64.0,47.6,31.01,South,178,5.8,5.8,55,0.00,,,0.00,VWS V13.01,2013-05-08 14:20:00,
2013-05-08 09:21:00,64.0,47.6,31.01,South,181,6.3,6.3,55,0.00,,,0.00,VWS V13.01,2013-05-08 14:21:00,
2013-05-08 09:22:00,64.2,47.7,31.01,SSW,192,4.0,4.0,55,0.00,,,0.00,VWS V13.01,2013-05-08 14:22:00,
2013-05-08 09:24:00,64.0,47.6,31.01,South,187,6.3,6.3,55,0.00,,,0.00,VWS V13.01,2013-05-08 14:24:00,
2013-05-08 09:25:00,63.9,47.4,31.01,South,188,5.4,5.4,55,0.00,,,0.00,VWS V13.01,2013-05-08 14:25:00,
2013-05-08 09:27:00,63.7,47.2,31.01,South,187,6.3,6.3,55,0.00,,,0.00,VWS V13.01,2013-05-08 14:27:00,
2013-05-08 09:29:00,63.5,47.1,31.01,South,182,6.3,6.3,55,0.00,,,0.00,VWS V13.01,2013-05-08 14:29:00,
2013-05-08 09:30:00,63.5,47.1,31.01,South,180,5.8,5.8,55,0.00,,,0.00,VWS V13.01,2013-05-08 14:30:00,
2013-05-08 09:32:00,63.1,46.7,31.01,South,185,5.4,5.4,55,0.00,,,0.00,VWS V13.01,2013-05-08 14:32:00,
2013-05-08 09:34:00,63.1,46.7,31.01,SSW,193,5.4,5.4,55,0.00,,,0.00,VWS V13.01,2013-05-08 14:34:00,
2013-05-08 09:35:00,63.0,46.6,31.01,SSW,193,3.6,3.6,55,0.00,,,0.00,VWS V13.01,2013-05-08 14:35:00,
2013-05-08 09:37:00,63.0,46.6,31.01,SSW,193,3.1,3.1,55,0.00,,,0.00,VWS V13.01,2013-05-08 14:37:00,
2013-05-08 09:38:00,63.0,46.6,31.01,SSW,193,4.5,4.5,55,0.00,,,0.00,VWS V13.01,2013-05-08 14:38:00,
2013-05-08 09:39:00,63.1,46.7,31.01,SSW,193,3.1,3.1,55,0.00,,,0.00,VWS V13.01,2013-05-08 14:39:00,
2013-05-08 09:40:00,63.3,46.9,31.01,SSW,193,3.1,3.1,55,0.00,,,0.00,VWS V13.01,2013-05-08 14:40:00,
2013-05-08 09:42:00,63.3,46.9,31.01,South,185,5.8,5.8,55,0.00,,,0.00,VWS V13.01,2013-05-08 14:42:00,
2013-05-08 09:43:00,63.5,47.1,31.01,South,184,4.9,4.9,55,0.00,,,0.00,VWS V13.01,2013-05-08 14:43:00,
2013-05-08 09:44:00,63.5,47.1,31.01,South,185,3.6,3.6,55,0.00,,,0.00,VWS V13.01,2013-05-08 14:44:00,
2013-05-08 09:46:00,63.7,47.2,31.01,South,184,2.7,2.7,55,0.00,,,0.00,VWS V13.01,2013-05-08 14:46:00,
2013-05-08 09:47:00,63.7,47.2,31.01,South,184,3.1,3.1,55,0.00,,,0.00,VWS V13.01,2013-05-08 14:47:00,
2013-05-08 09:48:00,63.7,47.2,31.01,South,180,6.3,6.3,55,0.00,,,0.00,VWS V13.01,2013-05-08 14:48:00,
2013-05-08 09:49:00,63.5,47.1,31.01,South,186,4.9,4.9,55,0.00,,,0.00,VWS V13.01,2013-05-08 14:49:00,
2013-05-08 09:51:00,63.5,47.1,31.01,South,191,4.9,4.9,55,0.00,,,0.00,VWS V13.01,2013-05-08 14:51:00,
2013-05-08 09:52:00,63.5,47.1,31.01,South,187,4.9,4.9,55,0.00,,,0.00,VWS V13.01,2013-05-08 14:52:00,
2013-05-08 09:53:00,63.3,46.9,31.01,South,187,4.0,4.0,55,0.00,,,0.00,VWS V13.01,2013-05-08 14:53:00,
2013-05-08 09:54:00,63.5,47.1,31.01,South,177,3.6,3.6,55,0.00,,,0.00,VWS V13.01,2013-05-08 14:54:00,
2013-05-08 09:56:00,63.5,47.1,31.01,South,185,5.4,5.4,55,0.00,,,0.00,VWS V13.01,2013-05-08 14:56:00,
2013-05-08 09:57:00,63.5,47.1,31.01,South,189,5.8,5.8,55,0.00,,,0.00,VWS V13.01,2013-05-08 14:57:00,
2013-05-08 09:58:00,63.3,46.9,31.01,South,187,5.4,5.4,55,0.00,,,0.00,VWS V13.01,2013-05-08 14:58:00,
2013-05-08 09:59:00,63.5,47.1,31.01,South,186,5.4,5.4,55,0.00,,,0.00,VWS V13.01,2013-05-08 14:59:00,
2013-05-08 10:00:00,63.5,47.1,31.01,South,182,5.4,5.4,55,0.00,,,0.00,VWS V13.01,2013-05-08 15:00:00,
2013-05-08 10:01:00,63.5,47.1,31.01,South,186,5.8,5.8,55,0.00,,,0.00,VWS V13.01,2013-05-08 15:01:00,
2013-05-08 10:02:00,63.5,47.1,31.01,South,171,4.5,4.5,55,0.00,,,0.00,VWS V13.01,2013-05-08 15:02:00,
2013-05-08 10:03:00,63.7,47.2,31.01,South,181,5.8,5.8,55,0.00,,,0.00,VWS V13.01,2013-05-08 15:03:00,
2013-05-08 10:04:00,63.7,47.2,31.01,South,175,5.4,5.4,55,0.00,,,0.00,VWS V13.01,2013-05-08 15:04:00,
2013-05-08 10:05:00,63.7,47.2,31.01,South,184,5.4,5.4,55,0.00,,,0.00,VWS V13.01,2013-05-08 15:05:00,
2013-05-08 10:06:00,63.7,47.2,31.01,South,183,4.5,4.5,55,0.00,,,0.00,VWS V13.01,2013-05-08 15:06:00,
2013-05-08 10:07:00,63.7,47.2,31.01,South,187,4.5,4.5,55,0.00,,,0.00,VWS V13.01,2013-05-08 15:07:00,
2013-05-08 10:08:00,63.7,47.2,31.01,South,187,5.8,5.8,55,0.00,,,0.00,VWS V13.01,2013-05-08 15:08:00,
2013-05-08 10:09:00,63.9,47.4,31.01,South,188,5.8,5.8,55,0.00,,,0.00,VWS V13.01,2013-05-08 15:09:00,
2013-05-08 10:10:00,63.9,47.4,31.01,South,188,6.3,6.3,55,0.00,,,0.00,VWS V13.01,2013-05-08 15:10:00,
2013-05-08 10:11:00,63.9,47.4,31.01,South,184,5.4,5.4,55,0.00,,,0.00,VWS V13.01,2013-05-08 15:11:00,
2013-05-08 10:12:00,63.9,47.4,31.01,South,184,4.9,4.9,55,0.00,,,0.00,VWS V13.01,2013-05-08 15:12:00,
2013-05-08 10:13:00,64.0,47.6,31.01,South,186,4.0,4.0,55,0.00,,,0.00,VWS V13.01,2013-05-08 15:13:00,
2013-05-08 10:15:00,63.9,47.4,31.01,South,182,5.4,5.4,55,0.00,,,0.00,VWS V13.01,2013-05-08 15:15:00,
2013-05-08 10:16:00,63.9,47.4,31.01,South,182,5.4,5.4,55,0.00,,,0.00,VWS V13.01,2013-05-08 15:16:00,
2013-05-08 10:17:00,63.9,47.4,31.01,South,181,5.4,5.4,55,0.00,,,0.00,VWS V13.01,2013-05-08 15:17:00,
2013-05-08 10:18:00,64.0,47.6,31.01,South,191,3.6,3.6,55,0.00,,,0.00,VWS V13.01,2013-05-08 15:18:00,
2013-05-08 10:20:00,64.4,47.9,31.01,South,176,3.6,3.6,55,0.00,,,0.00,VWS V13.01,2013-05-08 15:20:00,
2013-05-08 10:22:00,64.4,47.9,31.01,South,186,5.8,5.8,55,0.00,,,0.00,VWS V13.01,2013-05-08 15:22:00,
2013-05-08 10:24:00,65.1,48.6,31.01,SSW,199,6.3,6.3,55,0.00,,,0.00,VWS V13.01,2013-05-08 15:24:00,
2013-05-08 10:25:00,65.3,48.7,31.01,South,171,7.6,7.6,55,0.00,,,0.00,VWS V13.01,2013-05-08 15:25:00,
2013-05-08 10:27:00,65.5,48.9,31.01,South,184,8.1,8.1,55,0.00,,,0.00,VWS V13.01,2013-05-08 15:27:00,
2013-05-08 10:28:00,65.5,48.9,31.01,SSW,193,5.8,5.8,55,0.00,,,0.00,VWS V13.01,2013-05-08 15:28:00,
2013-05-08 10:29:00,66.0,49.4,31.01,South,186,5.4,5.4,55,0.00,,,0.00,VWS V13.01,2013-05-08 15:29:00,
2013-05-08 10:30:00,66.0,49.4,31.01,SSW,192,5.8,5.8,55,0.00,,,0.00,VWS V13.01,2013-05-08 15:30:00,
2013-05-08 10:32:00,67.1,47.3,31.01,South,189,5.4,5.4,49,0.00,,,0.00,VWS V13.01,2013-05-08 15:32:00,
2013-05-08 10:33:00,67.3,47.5,31.01,South,180,5.4,5.4,49,0.00,,,0.00,VWS V13.01,2013-05-08 15:33:00,
2013-05-08 10:34:00,66.7,47.0,31.01,SSE,164,8.3,8.3,49,0.00,,,0.00,VWS V13.01,2013-05-08 15:34:00,
2013-05-08 10:35:00,66.9,47.2,31.01,South,184,7.6,7.6,49,0.00,,,0.00,VWS V13.01,2013-05-08 15:35:00,
2013-05-08 10:36:00,66.9,47.2,31.01,South,180,8.1,8.1,49,0.00,,,0.00,VWS V13.01,2013-05-08 15:36:00,
2013-05-08 10:37:00,66.6,46.8,31.01,South,177,8.3,8.3,49,0.00,,,0.00,VWS V13.01,2013-05-08 15:37:00,
2013-05-08 10:38:00,66.7,47.0,31.01,South,175,6.7,6.7,49,0.00,,,0.00,VWS V13.01,2013-05-08 15:38:00,
2013-05-08 10:40:00,66.9,47.2,31.01,South,178,11.4,11.4,49,0.00,,,0.00,VWS V13.01,2013-05-08 15:40:00,
2013-05-08 10:41:00,66.9,47.2,31.01,South,186,8.7,8.7,49,0.00,,,0.00,VWS V13.01,2013-05-08 15:41:00,
2013-05-08 10:43:00,67.6,47.8,31.01,South,188,11.0,11.0,49,0.00,,,0.00,VWS V13.01,2013-05-08 15:43:00,
2013-05-08 10:45:00,68.2,48.3,31.01,SSW,194,7.2,7.2,49,0.00,,,0.00,VWS V13.01,2013-05-08 15:45:00,
2013-05-08 10:46:00,68.9,49.0,31.01,South,182,10.1,10.1,49,0.00,,,0.00,VWS V13.01,2013-05-08 15:46:00,
2013-05-08 10:48:00,69.6,49.6,31.01,South,184,6.3,6.3,49,0.00,,,0.00,VWS V13.01,2013-05-08 15:48:00,
2013-05-08 10:50:00,70.0,50.0,31.01,South,172,6.3,6.3,49,0.00,,,0.00,VWS V13.01,2013-05-08 15:50:00,
2013-05-08 10:51:00,69.1,49.1,31.01,SSW,196,8.3,8.3,49,0.00,,,0.00,VWS V13.01,2013-05-08 15:51:00,
2013-05-08 10:53:00,69.1,49.1,31.01,South,175,10.5,10.5,49,0.00,,,0.00,VWS V13.01,2013-05-08 15:53:00,
2013-05-08 10:55:00,68.5,48.6,31.01,South,182,7.6,7.6,49,0.00,,,0.00,VWS V13.01,2013-05-08 15:55:00,
2013-05-08 10:56:00,68.2,48.3,31.01,SSW,199,8.1,8.1,49,0.00,,,0.00,VWS V13.01,2013-05-08 15:56:00,
2013-05-08 10:58:00,67.6,47.8,31.01,SSW,198,8.3,8.3,49,0.00,,,0.00,VWS V13.01,2013-05-08 15:58:00,
2013-05-08 11:00:00,66.7,47.0,31.01,SSW,194,8.1,8.1,49,0.00,,,0.00,VWS V13.01,2013-05-08 16:00:00,
2013-05-08 11:01:00,66.6,46.8,31.01,South,181,8.3,8.3,49,0.00,,,0.00,VWS V13.01,2013-05-08 16:01:00,
2013-05-08 11:02:00,66.4,46.7,31.01,South,183,12.3,12.3,49,0.00,,,0.00,VWS V13.01,2013-05-08 16:02:00,
2013-05-08 11:03:00,66.2,46.5,31.01,South,178,11.4,11.4,49,0.00,,,0.00,VWS V13.01,2013-05-08 16:03:00,
2013-05-08 11:05:00,66.2,46.5,31.01,South,181,10.1,10.1,49,0.00,,,0.00,VWS V13.01,2013-05-08 16:05:00,
2013-05-08 11:06:00,66.0,49.4,31.01,South,186,10.1,10.1,55,0.00,,,0.00,VWS V13.01,2013-05-08 16:06:00,
2013-05-08 11:07:00,66.0,49.4,31.01,South,172,8.7,8.7,55,0.00,,,0.00,VWS V13.01,2013-05-08 16:07:00,
2013-05-08 11:08:00,65.8,49.2,31.01,SSW,194,11.0,11.0,55,0.00,,,0.00,VWS V13.01,2013-05-08 16:08:00,
2013-05-08 11:09:00,65.8,49.2,31.01,South,183,10.1,10.1,55,0.00,,,0.00,VWS V13.01,2013-05-08 16:09:00,
2013-05-08 11:10:00,65.7,49.1,31.01,SSW,193,12.8,12.8,55,0.00,,,0.00,VWS V13.01,2013-05-08 16:10:00,
2013-05-08 11:11:00,65.7,49.1,31.01,South,182,13.6,13.6,55,0.00,,,0.00,VWS V13.01,2013-05-08 16:11:00,
2013-05-08 11:12:00,65.7,49.1,31.01,SSW,198,15.0,15.0,55,0.00,,,0.00,VWS V13.01,2013-05-08 16:12:00,
2013-05-08 11:13:00,65.3,48.7,31.01,South,190,8.3,8.3,55,0.00,,,0.00,VWS V13.01,2013-05-08 16:13:00,
2013-05-08 11:14:00,65.5,48.9,31.01,South,184,10.1,10.1,55,0.00,,,0.00,VWS V13.01,2013-05-08 16:14:00,
2013-05-08 11:16:00,65.5,48.9,31.01,South,172,8.1,8.1,55,0.00,,,0.00,VWS V13.01,2013-05-08 16:16:00,
2013-05-08 11:17:00,64.9,48.4,31.01,South,178,12.8,12.8,55,0.00,,,0.00,VWS V13.01,2013-05-08 16:17:00,
2013-05-08 11:18:00,64.8,48.2,31.01,South,187,8.1,8.1,55,0.00,,,0.00,VWS V13.01,2013-05-08 16:18:00,
2013-05-08 11:19:00,64.8,48.2,31.01,South,181,10.1,10.1,55,0.00,,,0.00,VWS V13.01,2013-05-08 16:19:00,
2013-05-08 11:21:00,64.9,48.4,31.01,South,181,8.3,8.3,55,0.00,,,0.00,VWS V13.01,2013-05-08 16:21:00,
2013-05-08 11:22:00,64.9,48.4,31.01,SSW,203,8.1,8.1,55,0.00,,,0.00,VWS V13.01,2013-05-08 16:22:00,
2013-05-08 11:23:00,65.1,48.6,31.01,SSW,198,10.1,10.1,55,0.00,,,0.00,VWS V13.01,2013-05-08 16:23:00,
2013-05-08 11:24:00,65.3,48.7,31.01,South,181,8.7,8.7,55,0.00,,,0.00,VWS V13.01,2013-05-08 16:24:00,
2013-05-08 11:26:00,65.5,48.9,31.01,South,183,8.1,8.1,55,0.00,,,0.00,VWS V13.01,2013-05-08 16:26:00,
2013-05-08 11:27:00,65.5,48.9,31.01,South,180,12.3,12.3,55,0.00,,,0.00,VWS V13.01,2013-05-08 16:27:00,
2013-05-08 11:28:00,65.7,49.1,31.01,South,187,8.3,8.3,55,0.00,,,0.00,VWS V13.01,2013-05-08 16:28:00,
2013-05-08 11:29:00,65.7,49.1,31.01,South,189,7.6,7.6,55,0.00,,,0.00,VWS V13.01,2013-05-08 16:29:00,
2013-05-08 11:31:00,66.0,49.4,31.01,SSE,160,7.6,7.6,55,0.00,,,0.00,VWS V13.01,2013-05-08 16:31:00,
2013-05-08 11:32:00,66.0,49.4,31.01,SSW,194,8.3,8.3,55,0.00,,,0.00,VWS V13.01,2013-05-08 16:32:00,
2013-05-08 11:33:00,66.0,49.4,31.01,South,175,6.7,6.7,55,0.00,,,0.00,VWS V13.01,2013-05-08 16:33:00,
2013-05-08 11:34:00,66.0,49.4,31.01,South,176,8.1,8.1,55,0.00,,,0.00,VWS V13.01,2013-05-08 16:34:00,
2013-05-08 11:36:00,66.0,49.4,31.01,South,187,9.2,9.2,55,0.00,,,0.00,VWS V13.01,2013-05-08 16:36:00,
2013-05-08 11:37:00,66.6,46.8,31.01,South,179,8.1,8.1,49,0.00,,,0.00,VWS V13.01,2013-05-08 16:37:00,
2013-05-08 11:39:00,66.6,46.8,31.01,SSE,164,7.6,7.6,49,0.00,,,0.00,VWS V13.01,2013-05-08 16:39:00,
2013-05-08 11:41:00,66.6,46.8,31.01,South,175,8.7,8.7,49,0.00,,,0.00,VWS V13.01,2013-05-08 16:41:00,
2013-05-08 11:42:00,66.7,47.0,31.01,South,189,7.2,7.2,49,0.00,,,0.00,VWS V13.01,2013-05-08 16:42:00,
2013-05-08 11:44:00,66.7,47.0,31.01,South,187,12.8,12.8,49,0.00,,,0.00,VWS V13.01,2013-05-08 16:44:00,
2013-05-08 11:46:00,66.0,49.4,31.01,SSW,194,13.2,13.2,55,0.00,,,0.00,VWS V13.01,2013-05-08 16:46:00,
2013-05-08 11:47:00,66.2,46.5,31.01,South,178,10.5,10.5,49,0.00,,,0.00,VWS V13.01,2013-05-08 16:47:00,
2013-05-08 11:49:00,66.4,46.7,31.01,SSE,168,8.3,8.3,49,0.00,,,0.00,VWS V13.01,2013-05-08 16:49:00,
2013-05-08 11:51:00,66.7,47.0,31.01,South,184,10.1,10.1,49,0.00,,,0.00,VWS V13.01,2013-05-08 16:51:00,
2013-05-08 11:52:00,66.7,47.0,31.01,South,186,8.3,8.3,49,0.00,,,0.00,VWS V13.01,2013-05-08 16:52:00,
2013-05-08 11:54:00,66.9,47.2,31.01,SSW,196,8.3,8.3,49,0.00,,,0.00,VWS V13.01,2013-05-08 16:54:00,
2013-05-08 11:57:00,67.1,47.3,31.01,SSE,164,11.0,11.0,49,0.00,,,0.00,VWS V13.01,2013-05-08 16:57:00,
2013-05-08 11:59:00,66.9,47.2,31.01,SSE,165,8.3,8.3,49,0.00,,,0.00,VWS V13.01,2013-05-08 16:59:00,
2013-05-08 12:02:00,66.7,47.0,31.01,South,177,11.0,11.0,49,0.00,,,0.00,VWS V13.01,2013-05-08 17:02:00,
2013-05-08 12:04:00,66.6,46.8,31.01,South,191,10.1,10.1,49,0.00,,,0.00,VWS V13.01,2013-05-08 17:04:00,
2013-05-08 12:07:00,66.6,46.8,31.01,South,189,13.2,13.2,49,0.00,,,0.00,VWS V13.01,2013-05-08 17:07:00,
2013-05-08 12:08:00,66.6,46.8,31.01,SSE,168,10.5,10.5,49,0.00,,,0.00,VWS V13.01,2013-05-08 17:08:00,
2013-05-08 12:09:00,66.9,47.2,31.01,South,181,13.2,13.2,49,0.00,,,0.00,VWS V13.01,2013-05-08 17:09:00,
2013-05-08 12:12:00,67.1,47.3,31.01,South,179,17.4,17.4,49,0.00,,,0.00,VWS V13.01,2013-05-08 17:12:00,
2013-05-08 12:13:00,67.1,47.3,31.01,South,182,12.8,12.8,49,0.00,,,0.00,VWS V13.01,2013-05-08 17:13:00,
2013-05-08 12:14:00,67.3,47.5,31.01,South,184,11.4,11.4,49,0.00,,,0.00,VWS V13.01,2013-05-08 17:14:00,
2013-05-08 12:15:00,67.8,48.0,31.01,South,179,11.0,11.0,49,0.00,,,0.00,VWS V13.01,2013-05-08 17:15:00,
2013-05-08 12:17:00,68.5,48.6,31.01,South,173,9.6,9.6,49,0.00,,,0.00,VWS V13.01,2013-05-08 17:17:00,
2013-05-08 12:18:00,68.5,48.6,31.01,South,190,10.5,10.5,49,0.00,,,0.00,VWS V13.01,2013-05-08 17:18:00,
2013-05-08 12:19:00,68.4,48.5,31.01,South,187,12.8,12.8,49,0.00,,,0.00,VWS V13.01,2013-05-08 17:19:00,
2013-05-08 12:20:00,68.7,48.8,31.01,South,183,11.0,11.0,49,0.00,,,0.00,VWS V13.01,2013-05-08 17:20:00,
2013-05-08 12:22:00,68.7,48.8,31.01,SSE,168,8.7,8.7,49,0.00,,,0.00,VWS V13.01,2013-05-08 17:22:00,
2013-05-08 12:23:00,68.5,48.6,31.01,SSE,168,10.5,10.5,49,0.00,,,0.00,VWS V13.01,2013-05-08 17:23:00,
2013-05-08 12:24:00,68.5,48.6,31.01,South,179,15.4,15.4,49,0.00,,,0.00,VWS V13.01,2013-05-08 17:24:00,
2013-05-08 12:25:00,68.4,48.5,31.01,South,179,13.2,13.2,49,0.00,,,0.00,VWS V13.01,2013-05-08 17:25:00,
2013-05-08 12:28:00,68.2,48.3,31.01,South,183,15.9,15.9,49,0.00,,,0.00,VWS V13.01,2013-05-08 17:28:00,
2013-05-08 12:29:00,67.3,47.5,31.01,SSW,200,13.2,13.2,49,0.00,,,0.00,VWS V13.01,2013-05-08 17:29:00,
2013-05-08 12:30:00,67.6,47.8,31.01,South,186,17.4,17.4,49,0.00,,,0.00,VWS V13.01,2013-05-08 17:30:00,
2013-05-08 12:33:00,68.0,48.2,31.01,SSW,205,12.8,12.8,49,0.00,,,0.00,VWS V13.01,2013-05-08 17:33:00,
2013-05-08 12:34:00,67.3,47.5,31.01,SSW,203,14.5,14.5,49,0.00,,,0.00,VWS V13.01,2013-05-08 17:34:00,
2013-05-08 12:35:00,67.3,47.5,31.01,South,188,13.2,13.2,49,0.00,,,0.00,VWS V13.01,2013-05-08 17:35:00,
2013-05-08 12:38:00,67.6,47.8,31.01,SSW,193,13.2,13.2,49,0.00,,,0.00,VWS V13.01,2013-05-08 17:38:00,
2013-05-08 12:39:00,67.6,47.8,31.01,South,171,13.2,13.2,49,0.00,,,0.00,VWS V13.01,2013-05-08 17:39:00,
2013-05-08 12:40:00,67.5,47.7,31.01,South,183,15.9,15.9,49,0.00,,,0.00,VWS V13.01,2013-05-08 17:40:00,
2013-05-08 12:43:00,67.8,48.0,31.01,South,187,12.3,12.3,49,0.00,,,0.00,VWS V13.01,2013-05-08 17:43:00,
2013-05-08 12:44:00,68.0,48.2,31.01,SSE,164,15.4,15.4,49,0.00,,,0.00,VWS V13.01,2013-05-08 17:44:00,
2013-05-08 12:45:00,68.4,48.5,31.01,South,177,12.8,12.8,49,0.00,,,0.00,VWS V13.01,2013-05-08 17:45:00,
2013-05-08 12:48:00,68.9,49.0,31.01,SE,129,10.1,10.1,49,0.00,,,0.00,VWS V13.01,2013-05-08 17:48:00,
2013-05-08 12:49:00,70.0,50.0,31.01,South,184,15.0,15.0,49,0.00,,,0.00,VWS V13.01,2013-05-08 17:49:00,
2013-05-08 12:50:00,70.9,50.8,31.01,South,174,11.0,11.0,49,0.00,,,0.00,VWS V13.01,2013-05-08 17:50:00,
2013-05-08 12:53:00,69.4,49.5,31.01,SSW,197,14.5,14.5,49,0.00,,,0.00,VWS V13.01,2013-05-08 17:53:00,
2013-05-08 12:54:00,70.2,50.1,31.01,South,190,12.8,12.8,49,0.00,,,0.00,VWS V13.01,2013-05-08 17:54:00,
2013-05-08 12:55:00,69.4,49.5,31.01,SSW,197,12.8,12.8,49,0.00,,,0.00,VWS V13.01,2013-05-08 17:55:00,
2013-05-08 12:58:00,69.6,49.6,31.01,SSE,151,15.0,15.0,49,0.00,,,0.00,VWS V13.01,2013-05-08 17:58:00,
2013-05-08 12:59:00,69.3,49.3,31.01,South,171,12.8,12.8,49,0.00,,,0.00,VWS V13.01,2013-05-08 17:59:00,
2013-05-08 13:00:00,68.7,48.8,31.01,South,182,13.2,13.2,49,0.00,,,0.00,VWS V13.01,2013-05-08 18:00:00,
2013-05-08 13:03:00,68.2,48.3,31.01,South,179,8.3,8.3,49,0.00,,,0.00,VWS V13.01,2013-05-08 18:03:00,
2013-05-08 13:04:00,68.7,48.8,31.01,SSE,167,11.0,11.0,49,0.00,,,0.00,VWS V13.01,2013-05-08 18:04:00,
2013-05-08 13:05:00,67.6,47.8,31.01,SSE,163,17.4,17.4,49,0.00,,,0.00,VWS V13.01,2013-05-08 18:05:00,
2013-05-08 13:08:00,67.5,47.7,31.01,South,188,14.5,14.5,49,0.00,,,0.00,VWS V13.01,2013-05-08 18:08:00,
2013-05-08 13:09:00,67.5,47.7,31.01,South,181,14.5,14.5,49,0.00,,,0.00,VWS V13.01,2013-05-08 18:09:00,
2013-05-08 13:10:00,67.5,47.7,31.01,SSE,157,12.3,12.3,49,0.00,,,0.00,VWS V13.01,2013-05-08 18:10:00,
2013-05-08 13:13:00,67.8,48.0,31.01,South,172,8.1,8.1,49,0.00,,,0.00,VWS V13.01,2013-05-08 18:13:00,
2013-05-08 13:14:00,68.0,48.2,31.01,SSW,193,12.3,12.3,49,0.00,,,0.00,VWS V13.01,2013-05-08 18:14:00,
2013-05-08 13:15:00,68.2,48.3,31.01,South,178,11.0,11.0,49,0.00,,,0.00,VWS V13.01,2013-05-08 18:15:00,
2013-05-08 13:18:00,67.6,47.8,31.01,South,174,10.5,10.5,49,0.00,,,0.00,VWS V13.01,2013-05-08 18:18:00,
2013-05-08 13:19:00,67.6,47.8,31.01,South,177,11.0,11.0,49,0.00,,,0.00,VWS V13.01,2013-05-08 18:19:00,
2013-05-08 13:20:00,67.3,47.5,31.01,South,184,12.8,12.8,49,0.00,,,0.00,VWS V13.01,2013-05-08 18:20:00,
2013-05-08 13:23:00,66.9,47.2,31.01,South,184,11.4,11.4,49,0.00,,,0.00,VWS V13.01,2013-05-08 18:23:00,
2013-05-08 13:24:00,66.7,47.0,31.01,South,171,11.9,11.9,49,0.00,,,0.00,VWS V13.01,2013-05-08 18:24:00,
2013-05-08 13:25:00,66.7,47.0,31.01,South,185,12.8,12.8,49,0.00,,,0.00,VWS V13.01,2013-05-08 18:25:00,
2013-05-08 13:26:00,66.7,47.0,31.01,SSW,199,8.3,8.3,49,0.00,,,0.00,VWS V13.01,2013-05-08 18:26:00,
2013-05-08 13:28:00,68.0,48.2,31.01,SSE,168,7.6,7.6,49,0.00,,,0.00,VWS V13.01,2013-05-08 18:28:00,
2013-05-08 13:29:00,68.4,48.5,31.01,South,173,10.5,10.5,49,0.00,,,0.00,VWS V13.01,2013-05-08 18:29:00,
2013-05-08 13:30:00,68.0,48.2,31.01,South,190,8.7,8.7,49,0.00,,,0.00,VWS V13.01,2013-05-08 18:30:00,
2013-05-08 13:31:00,67.8,48.0,31.01,South,171,13.2,13.2,49,0.00,,,0.00,VWS V13.01,2013-05-08 18:31:00,
2013-05-08 13:34:00,68.5,48.6,31.01,South,182,10.5,10.5,49,0.00,,,0.00,VWS V13.01,2013-05-08 18:34:00,
2013-05-08 13:35:00,69.3,49.3,31.01,South,170,10.1,10.1,49,0.00,,,0.00,VWS V13.01,2013-05-08 18:35:00,
2013-05-08 13:36:00,68.9,49.0,31.01,South,181,8.7,8.7,49,0.00,,,0.00,VWS V13.01,2013-05-08 18:36:00,
2013-05-08 13:39:00,68.5,48.6,31.01,SSE,164,8.3,8.3,49,0.00,,,0.00,VWS V13.01,2013-05-08 18:39:00,
2013-05-08 13:40:00,69.1,49.1,31.01,SSE,165,10.1,10.1,49,0.00,,,0.00,VWS V13.01,2013-05-08 18:40:00,
2013-05-08 13:41:00,68.9,49.0,31.01,SSE,167,8.7,8.7,49,0.00,,,0.00,VWS V13.01,2013-05-08 18:41:00,
2013-05-08 13:44:00,69.1,49.1,31.01,South,171,11.0,11.0,49,0.00,,,0.00,VWS V13.01,2013-05-08 18:44:00,
2013-05-08 13:45:00,69.4,49.5,31.01,South,173,8.7,8.7,49,0.00,,,0.00,VWS V13.01,2013-05-08 18:45:00,
2013-05-08 13:46:00,69.4,49.5,31.01,SSE,167,12.3,12.3,49,0.00,,,0.00,VWS V13.01,2013-05-08 18:46:00,
2013-05-08 13:49:00,69.3,49.3,31.01,South,174,5.8,5.8,49,0.00,,,0.00,VWS V13.01,2013-05-08 18:49:00,
2013-05-08 13:51:00,69.1,49.1,31.01,South,173,6.3,6.3,49,0.00,,,0.00,VWS V13.01,2013-05-08 18:51:00,
2013-05-08 13:54:00,70.3,50.3,31.01,South,176,7.6,7.6,49,0.00,,,0.00,VWS V13.01,2013-05-08 18:54:00,
2013-05-08 13:55:00,70.3,50.3,31.01,South,174,10.1,10.1,49,0.00,,,0.00,VWS V13.01,2013-05-08 18:55:00,
2013-05-08 13:56:00,70.5,50.5,31.01,South,170,8.7,8.7,49,0.00,,,0.00,VWS V13.01,2013-05-08 18:56:00,
2013-05-08 13:59:00,71.2,51.1,31.01,South,169,5.8,5.8,49,0.00,,,0.00,VWS V13.01,2013-05-08 18:59:00,
2013-05-08 14:00:00,70.5,50.5,31.01,South,176,10.1,10.1,49,0.00,,,0.00,VWS V13.01,2013-05-08 19:00:00,
2013-05-08 14:01:00,70.5,50.5,31.01,SSE,168,11.4,11.4,49,0.00,,,0.00,VWS V13.01,2013-05-08 19:01:00,
2013-05-08 14:04:00,69.6,49.6,31.01,South,177,8.1,8.1,49,0.00,,,0.00,VWS V13.01,2013-05-08 19:04:00,
2013-05-08 14:05:00,69.6,49.6,31.01,South,173,8.3,8.3,49,0.00,,,0.00,VWS V13.01,2013-05-08 19:05:00,
2013-05-08 14:06:00,69.6,49.6,31.01,South,180,7.6,7.6,49,0.00,,,0.00,VWS V13.01,2013-05-08 19:06:00,
2013-05-08 14:07:00,70.0,50.0,31.01,South,171,7.6,7.6,49,0.00,,,0.00,VWS V13.01,2013-05-08 19:07:00,
2013-05-08 14:09:00,70.7,50.6,31.01,South,177,10.1,10.1,49,0.00,,,0.00,VWS V13.01,2013-05-08 19:09:00,
2013-05-08 14:10:00,70.7,50.6,31.01,SSE,165,10.1,10.1,49,0.00,,,0.00,VWS V13.01,2013-05-08 19:10:00,
2013-05-08 14:11:00,70.2,50.1,31.01,SSW,194,7.2,7.2,49,0.00,,,0.00,VWS V13.01,2013-05-08 19:11:00,
2013-05-08 14:12:00,70.2,50.1,31.01,South,186,11.4,11.4,49,0.00,,,0.00,VWS V13.01,2013-05-08 19:12:00,
2013-05-08 14:14:00,71.2,51.1,31.01,South,178,9.6,9.6,49,0.00,,,0.00,VWS V13.01,2013-05-08 19:14:00,
2013-05-08 14:15:00,71.2,51.1,31.01,SSE,152,5.4,5.4,49,0.00,,,0.00,VWS V13.01,2013-05-08 19:15:00,
2013-05-08 14:16:00,71.4,51.3,31.01,SSE,168,7.6,7.6,49,0.00,,,0.00,VWS V13.01,2013-05-08 19:16:00,
2013-05-08 14:17:00,72.0,48.3,31.01,SSE,151,5.8,5.8,43,0.00,,,0.00,VWS V13.01,2013-05-08 19:17:00,
2013-05-08 14:19:00,71.2,51.1,31.01,SSE,167,11.0,11.0,49,0.00,,,0.00,VWS V13.01,2013-05-08 19:19:00,
2013-05-08 14:20:00,71.2,51.1,31.01,SSE,151,10.5,10.5,49,0.00,,,0.00,VWS V13.01,2013-05-08 19:20:00,
2013-05-08 14:21:00,71.4,51.3,31.01,SE,141,8.3,8.3,49,0.00,,,0.00,VWS V13.01,2013-05-08 19:21:00,
2013-05-08 14:22:00,71.6,47.9,31.01,South,186,8.1,8.1,43,0.00,,,0.00,VWS V13.01,2013-05-08 19:22:00,
2013-05-08 14:25:00,71.8,48.1,31.01,South,169,10.1,10.1,43,0.00,,,0.00,VWS V13.01,2013-05-08 19:25:00,
2013-05-08 14:26:00,71.8,48.1,31.01,SSE,165,7.2,7.2,43,0.00,,,0.00,VWS V13.01,2013-05-08 19:26:00,
2013-05-08 14:27:00,71.4,51.3,31.01,SSE,147,5.4,5.4,49,0.00,,,0.00,VWS V13.01,2013-05-08 19:27:00,
2013-05-08 14:30:00,70.2,50.1,31.01,South,179,7.6,7.6,49,0.00,,,0.00,VWS V13.01,2013-05-08 19:30:00,
2013-05-08 14:31:00,71.1,51.0,31.01,South,171,9.6,9.6,49,0.00,,,0.00,VWS V13.01,2013-05-08 19:31:00,
2013-05-08 14:32:00,70.9,50.8,31.01,South,172,10.5,10.5,49,0.00,,,0.00,VWS V13.01,2013-05-08 19:32:00,
2013-05-08 14:35:00,71.4,51.3,31.01,SSE,168,10.1,10.1,49,0.00,,,0.00,VWS V13.01,2013-05-08 19:35:00,
2013-05-08 14:36:00,71.8,48.1,31.01,South,173,10.1,10.1,43,0.00,,,0.00,VWS V13.01,2013-05-08 19:36:00,
2013-05-08 14:37:00,71.8,48.1,31.01,South,173,10.1,10.1,43,0.00,,,0.00,VWS V13.01,2013-05-08 19:37:00,
2013-05-08 14:38:00,71.6,47.9,31.01,South,176,11.0,11.0,43,0.00,,,0.00,VWS V13.01,2013-05-08 19:38:00,
2013-05-08 14:40:00,72.1,48.4,31.01,South,178,8.3,8.3,43,0.00,,,0.00,VWS V13.01,2013-05-08 19:40:00,
2013-05-08 14:42:00,72.0,48.3,31.01,South,176,8.3,8.3,43,0.00,,,0.00,VWS V13.01,2013-05-08 19:42:00,
2013-05-08 14:43:00,71.4,51.3,31.01,SSE,165,11.0,11.0,49,0.00,,,0.00,VWS V13.01,2013-05-08 19:43:00,
2013-05-08 14:45:00,71.2,51.1,31.01,South,170,8.7,8.7,49,0.00,,,0.00,VWS V13.01,2013-05-08 19:45:00,
2013-05-08 14:47:00,71.1,51.0,31.01,South,187,7.2,7.2,49,0.00,,,0.00,VWS V13.01,2013-05-08 19:47:00,
2013-05-08 14:48:00,71.8,48.1,31.01,South,186,8.3,8.3,43,0.00,,,0.00,VWS V13.01,2013-05-08 19:48:00,
2013-05-08 14:50:00,70.9,50.8,31.01,South,169,10.5,10.5,49,0.00,,,0.00,VWS V13.01,2013-05-08 19:50:00,
2013-05-08 14:52:00,70.0,50.0,31.01,SSE,166,11.0,11.0,49,0.00,,,0.00,VWS V13.01,2013-05-08 19:52:00,
2013-05-08 14:53:00,70.0,50.0,31.01,South,170,8.7,8.7,49,0.00,,,0.00,VWS V13.01,2013-05-08 19:53:00,
2013-05-08 14:55:00,70.7,50.6,31.01,South,172,10.1,10.1,49,0.00,,,0.00,VWS V13.01,2013-05-08 19:55:00,
2013-05-08 14:56:00,70.7,50.6,31.01,South,172,10.1,10.1,49,0.00,,,0.00,VWS V13.01,2013-05-08 19:56:00,
2013-05-08 14:57:00,70.7,50.6,31.01,South,177,11.0,11.0,49,0.00,,,0.00,VWS V13.01,2013-05-08 19:57:00,
2013-05-08 14:58:00,70.7,50.6,31.01,South,173,11.0,11.0,49,0.00,,,0.00,VWS V13.01,2013-05-08 19:58:00,
2013-05-08 15:01:00,70.5,50.5,31.01,South,172,10.5,10.5,49,0.00,,,0.00,VWS V13.01,2013-05-08 20:01:00,
2013-05-08 15:02:00,70.9,50.8,31.01,South,177,8.7,8.7,49,0.00,,,0.00,VWS V13.01,2013-05-08 20:02:00,
2013-05-08 15:03:00,71.1,51.0,31.01,South,171,8.3,8.3,49,0.00,,,0.00,VWS V13.01,2013-05-08 20:03:00,
2013-05-08 15:06:00,70.9,50.8,31.01,South,176,13.2,13.2,49,0.00,,,0.00,VWS V13.01,2013-05-08 20:06:00,
2013-05-08 15:07:00,70.7,50.6,31.01,South,190,12.8,12.8,49,0.00,,,0.00,VWS V13.01,2013-05-08 20:07:00,
2013-05-08 15:08:00,70.7,50.6,31.01,South,190,12.8,12.8,49,0.00,,,0.00,VWS V13.01,2013-05-08 20:08:00,
2013-05-08 15:11:00,71.1,51.0,31.01,South,178,8.7,8.7,49,0.00,,,0.00,VWS V13.01,2013-05-08 20:11:00,
2013-05-08 15:12:00,70.7,50.6,31.01,South,173,10.5,10.5,49,0.00,,,0.00,VWS V13.01,2013-05-08 20:12:00,
2013-05-08 15:13:00,70.7,50.6,31.01,SSE,156,8.3,8.3,49,0.00,,,0.00,VWS V13.01,2013-05-08 20:13:00,
2013-05-08 15:16:00,70.5,50.5,31.01,South,174,10.1,10.1,49,0.00,,,0.00,VWS V13.01,2013-05-08 20:16:00,
2013-05-08 15:17:00,70.7,50.6,31.01,SSW,192,13.2,13.2,49,0.00,,,0.00,VWS V13.01,2013-05-08 20:17:00,
2013-05-08 15:18:00,70.2,50.1,31.01,South,181,10.5,10.5,49,0.00,,,0.00,VWS V13.01,2013-05-08 20:18:00,
2013-05-08 15:21:00,69.8,49.8,31.01,South,181,8.1,8.1,49,0.00,,,0.00,VWS V13.01,2013-05-08 20:21:00,
2013-05-08 15:22:00,69.8,49.8,31.01,South,175,12.3,12.3,49,0.00,,,0.00,VWS V13.01,2013-05-08 20:22:00,
2013-05-08 15:23:00,69.4,49.5,31.01,South,178,8.3,8.3,49,0.00,,,0.00,VWS V13.01,2013-05-08 20:23:00,
2013-05-08 15:26:00,70.3,50.3,31.01,South,181,13.2,13.2,49,0.00,,,0.00,VWS V13.01,2013-05-08 20:26:00,
2013-05-08 15:27:00,70.0,50.0,31.01,SSW,194,8.1,8.1,49,0.00,,,0.00,VWS V13.01,2013-05-08 20:27:00,
2013-05-08 15:28:00,70.0,50.0,31.01,South,181,8.7,8.7,49,0.00,,,0.00,VWS V13.01,2013-05-08 20:28:00,
2013-05-08 15:31:00,70.2,50.1,31.01,SSE,162,12.8,12.8,49,0.00,,,0.00,VWS V13.01,2013-05-08 20:31:00,
2013-05-08 15:32:00,70.3,50.3,31.01,South,177,8.7,8.7,49,0.00,,,0.00,VWS V13.01,2013-05-08 20:32:00,
2013-05-08 15:34:00,69.8,49.8,31.01,SSE,147,12.8,12.8,49,0.00,,,0.00,VWS V13.01,2013-05-08 20:34:00,
2013-05-08 15:36:00,69.8,49.8,31.01,South,172,7.6,7.6,49,0.00,,,0.00,VWS V13.01,2013-05-08 20:36:00,
2013-05-08 15:37:00,69.8,49.8,31.01,South,170,8.1,8.1,49,0.00,,,0.00,VWS V13.01,2013-05-08 20:37:00,
2013-05-08 15:38:00,70.3,50.3,31.01,South,181,8.7,8.7,49,0.00,,,0.00,VWS V13.01,2013-05-08 20:38:00,
2013-05-08 15:39:00,70.5,50.5,31.01,South,172,12.3,12.3,49,0.00,,,0.00,VWS V13.01,2013-05-08 20:39:00,
2013-05-08 15:42:00,70.3,50.3,31.01,South,184,8.1,8.1,49,0.00,,,0.00,VWS V13.01,2013-05-08 20:42:00,
2013-05-08 15:43:00,70.5,50.5,31.01,South,170,8.3,8.3,49,0.00,,,0.00,VWS V13.01,2013-05-08 20:43:00,
2013-05-08 15:44:00,70.5,50.5,31.01,SSW,196,8.3,8.3,49,0.00,,,0.00,VWS V13.01,2013-05-08 20:44:00,
2013-05-08 15:47:00,70.0,50.0,31.01,SSW,193,8.3,8.3,49,0.00,,,0.00,VWS V13.01,2013-05-08 20:47:00,
2013-05-08 15:48:00,70.0,50.0,31.01,South,181,8.3,8.3,49,0.00,,,0.00,VWS V13.01,2013-05-08 20:48:00,
2013-05-08 15:49:00,70.5,50.5,31.01,SSW,195,7.6,7.6,49,0.00,,,0.00,VWS V13.01,2013-05-08 20:49:00,
2013-05-08 15:52:00,70.7,50.6,31.01,SSE,151,5.4,5.4,49,0.00,,,0.00,VWS V13.01,2013-05-08 20:52:00,
2013-05-08 15:53:00,70.9,50.8,31.01,South,177,13.6,13.6,49,0.00,,,0.00,VWS V13.01,2013-05-08 20:53:00,
2013-05-08 15:54:00,70.9,50.8,31.01,SSE,167,11.0,11.0,49,0.00,,,0.00,VWS V13.01,2013-05-08 20:54:00,
2013-05-08 15:57:00,71.1,51.0,31.01,South,173,8.1,8.1,49,0.00,,,0.00,VWS V13.01,2013-05-08 20:57:00,
2013-05-08 15:58:00,71.1,51.0,31.01,South,178,10.5,10.5,49,0.00,,,0.00,VWS V13.01,2013-05-08 20:58:00,
2013-05-08 15:59:00,71.1,51.0,31.01,South,174,9.6,9.6,49,0.00,,,0.00,VWS V13.01,2013-05-08 20:59:00,
2013-05-08 16:02:00,70.9,50.8,31.01,South,170,9.2,9.2,49,0.00,,,0.00,VWS V13.01,2013-05-08 21:02:00,
2013-05-08 16:03:00,70.7,50.6,31.01,South,170,13.6,13.6,49,0.00,,,0.00,VWS V13.01,2013-05-08 21:03:00,
2013-05-08 16:04:00,70.9,50.8,31.01,South,173,11.9,11.9,49,0.00,,,0.00,VWS V13.01,2013-05-08 21:04:00,
2013-05-08 16:05:00,71.1,51.0,31.01,South,171,8.3,8.3,49,0.00,,,0.00,VWS V13.01,2013-05-08 21:05:00,
2013-05-08 16:07:00,71.2,51.1,31.01,South,174,8.7,8.7,49,0.00,,,0.00,VWS V13.01,2013-05-08 21:07:00,
2013-05-08 16:08:00,71.1,51.0,31.01,South,191,8.3,8.3,49,0.00,,,0.00,VWS V13.01,2013-05-08 21:08:00,
2013-05-08 16:09:00,71.1,51.0,31.01,South,184,10.5,10.5,49,0.00,,,0.00,VWS V13.01,2013-05-08 21:09:00,
2013-05-08 16:10:00,71.2,51.1,31.01,South,173,11.0,11.0,49,0.00,,,0.00,VWS V13.01,2013-05-08 21:10:00,
2013-05-08 16:12:00,71.2,51.1,31.01,South,172,8.1,8.1,49,0.00,,,0.00,VWS V13.01,2013-05-08 21:12:00,
2013-05-08 16:13:00,71.2,51.1,31.01,South,173,5.4,5.4,49,0.00,,,0.00,VWS V13.01,2013-05-08 21:13:00,
2013-05-08 16:15:00,71.8,48.1,31.01,SSE,167,5.8,5.8,43,0.00,,,0.00,VWS V13.01,2013-05-08 21:15:00,
2013-05-08 16:17:00,72.1,48.4,31.01,South,180,8.1,8.1,43,0.00,,,0.00,VWS V13.01,2013-05-08 21:17:00,
2013-05-08 16:18:00,72.1,48.4,31.01,South,171,8.1,8.1,43,0.00,,,0.00,VWS V13.01,2013-05-08 21:18:00,
2013-05-08 16:20:00,71.8,48.1,31.01,South,173,10.5,10.5,43,0.00,,,0.00,VWS V13.01,2013-05-08 21:20:00,
2013-05-08 16:22:00,71.6,47.9,31.01,SSW,192,8.1,8.1,43,0.00,,,0.00,VWS V13.01,2013-05-08 21:22:00,
2013-05-08 16:23:00,71.8,48.1,31.01,SSW,202,8.1,8.1,43,0.00,,,0.00,VWS V13.01,2013-05-08 21:23:00,
2013-05-08 16:24:00,71.8,48.1,31.01,South,189,11.0,11.0,43,0.00,,,0.00,VWS V13.01,2013-05-08 21:24:00,
2013-05-08 16:25:00,72.1,48.4,31.01,South,173,8.1,8.1,43,0.00,,,0.00,VWS V13.01,2013-05-08 21:25:00,
2013-05-08 16:27:00,72.3,48.6,31.01,SE,140,6.7,6.7,43,0.00,,,0.00,VWS V13.01,2013-05-08 21:27:00,
2013-05-08 16:28:00,72.5,48.8,31.01,SSE,167,6.3,6.3,43,0.00,,,0.00,VWS V13.01,2013-05-08 21:28:00,
2013-05-08 16:29:00,72.7,48.9,31.01,South,174,8.7,8.7,43,0.00,,,0.00,VWS V13.01,2013-05-08 21:29:00,
2013-05-08 16:30:00,73.0,49.2,31.01,South,184,5.8,5.8,43,0.00,,,0.00,VWS V13.01,2013-05-08 21:30:00,
2013-05-08 16:32:00,73.2,49.4,31.01,South,179,8.7,8.7,43,0.00,,,0.00,VWS V13.01,2013-05-08 21:32:00,
2013-05-08 16:33:00,73.2,49.4,31.01,South,179,8.7,8.7,43,0.00,,,0.00,VWS V13.01,2013-05-08 21:33:00,
2013-05-08 16:34:00,72.9,49.1,31.01,South,181,10.1,10.1,43,0.00,,,0.00,VWS V13.01,2013-05-08 21:34:00,
2013-05-08 16:35:00,72.7,48.9,31.01,South,173,10.5,10.5,43,0.00,,,0.00,VWS V13.01,2013-05-08 21:35:00,
2013-05-08 16:38:00,72.0,48.3,31.01,South,181,7.6,7.6,43,0.00,,,0.00,VWS V13.01,2013-05-08 21:38:00,
2013-05-08 16:39:00,72.1,48.4,31.01,South,182,8.1,8.1,43,0.00,,,0.00,VWS V13.01,2013-05-08 21:39:00,
2013-05-08 16:40:00,72.0,48.3,31.01,South,179,5.4,5.4,43,0.00,,,0.00,VWS V13.01,2013-05-08 21:40:00,
2013-05-08 16:43:00,71.6,47.9,31.01,South,174,7.2,7.2,43,0.00,,,0.00,VWS V13.01,2013-05-08 21:43:00,
2013-05-08 16:44:00,71.6,47.9,31.01,South,173,8.1,8.1,43,0.00,,,0.00,VWS V13.01,2013-05-08 21:44:00,
2013-05-08 16:45:00,71.6,47.9,31.01,SSE,167,7.6,7.6,43,0.00,,,0.00,VWS V13.01,2013-05-08 21:45:00,
2013-05-08 16:48:00,71.4,51.3,31.01,South,169,8.7,8.7,49,0.00,,,0.00,VWS V13.01,2013-05-08 21:48:00,
2013-05-08 16:49:00,71.4,51.3,31.01,SSE,155,10.1,10.1,49,0.00,,,0.00,VWS V13.01,2013-05-08 21:49:00,
2013-05-08 16:51:00,71.2,51.1,31.01,South,170,10.5,10.5,49,0.00,,,0.00,VWS V13.01,2013-05-08 21:51:00,
2013-05-08 16:53:00,71.4,51.3,31.01,South,169,5.4,5.4,49,0.00,,,0.00,VWS V13.01,2013-05-08 21:53:00,
2013-05-08 16:54:00,71.4,51.3,31.01,SE,144,5.4,5.4,49,0.00,,,0.00,VWS V13.01,2013-05-08 21:54:00,
2013-05-08 16:56:00,71.4,51.3,31.01,South,181,6.3,6.3,49,0.00,,,0.00,VWS V13.01,2013-05-08 21:56:00,
2013-05-08 16:58:00,71.8,48.1,31.01,SE,142,4.9,4.9,43,0.00,,,0.00,VWS V13.01,2013-05-08 21:58:00,
2013-05-08 16:59:00,71.8,48.1,31.01,SE,146,4.0,4.0,43,0.00,,,0.00,VWS V13.01,2013-05-08 21:59:00,
2013-05-08 17:01:00,71.6,47.9,31.01,South,171,5.4,5.4,43,0.00,,,0.00,VWS V13.01,2013-05-08 22:01:00,
2013-05-08 17:03:00,71.6,47.9,31.01,South,170,8.1,8.1,43,0.00,,,0.00,VWS V13.01,2013-05-08 22:03:00,
2013-05-08 17:04:00,71.6,47.9,31.01,South,169,8.7,8.7,43,0.00,,,0.00,VWS V13.01,2013-05-08 22:04:00,
2013-05-08 17:05:00,71.6,47.9,31.01,South,170,5.8,5.8,43,0.00,,,0.00,VWS V13.01,2013-05-08 22:05:00,
2013-05-08 17:06:00,71.8,48.1,31.01,South,179,7.2,7.2,43,0.00,,,0.00,VWS V13.01,2013-05-08 22:06:00,
2013-05-08 17:08:00,72.0,48.3,31.01,South,175,5.4,5.4,43,0.00,,,0.00,VWS V13.01,2013-05-08 22:08:00,
2013-05-08 17:09:00,71.8,48.1,31.01,South,186,8.1,8.1,43,0.00,,,0.00,VWS V13.01,2013-05-08 22:09:00,
2013-05-08 17:10:00,71.6,47.9,31.01,SSW,196,8.7,8.7,43,0.00,,,0.00,VWS V13.01,2013-05-08 22:10:00,
2013-05-08 17:11:00,71.8,48.1,31.01,South,177,4.0,4.0,43,0.00,,,0.00,VWS V13.01,2013-05-08 22:11:00,
2013-05-08 17:13:00,71.8,48.1,31.01,South,181,8.1,8.1,43,0.00,,,0.00,VWS V13.01,2013-05-08 22:13:00,
2013-05-08 17:14:00,71.6,47.9,31.01,South,169,12.3,12.3,43,0.00,,,0.00,VWS V13.01,2013-05-08 22:14:00,
2013-05-08 17:15:00,71.6,47.9,31.01,SSE,152,8.3,8.3,43,0.00,,,0.00,VWS V13.01,2013-05-08 22:15:00,
2013-05-08 17:16:00,71.4,51.3,31.01,SSE,161,10.5,10.5,49,0.00,,,0.00,VWS V13.01,2013-05-08 22:16:00,
2013-05-08 17:18:00,71.6,47.9,31.01,South,172,7.2,7.2,43,0.00,,,0.00,VWS V13.01,2013-05-08 22:18:00,
2013-05-08 17:19:00,71.8,48.1,31.01,South,176,5.8,5.8,43,0.00,,,0.00,VWS V13.01,2013-05-08 22:19:00,
2013-05-08 17:20:00,71.6,47.9,31.01,SE,136,5.8,5.8,43,0.00,,,0.00,VWS V13.01,2013-05-08 22:20:00,
2013-05-08 17:21:00,71.8,48.1,31.01,South,169,6.7,6.7,43,0.00,,,0.00,VWS V13.01,2013-05-08 22:21:00,
2013-05-08 17:23:00,72.3,48.6,31.01,South,171,10.5,10.5,43,0.00,,,0.00,VWS V13.01,2013-05-08 22:23:00,
2013-05-08 17:24:00,72.3,48.6,31.01,South,182,8.1,8.1,43,0.00,,,0.00,VWS V13.01,2013-05-08 22:24:00,
2013-05-08 17:25:00,72.1,48.4,31.01,South,175,11.0,11.0,43,0.00,,,0.00,VWS V13.01,2013-05-08 22:25:00,
2013-05-08 17:26:00,72.5,48.8,31.01,South,174,8.3,8.3,43,0.00,,,0.00,VWS V13.01,2013-05-08 22:26:00,
2013-05-08 17:28:00,73.2,49.4,31.01,SSE,163,6.3,6.3,43,0.00,,,0.00,VWS V13.01,2013-05-08 22:28:00,
2013-05-08 17:29:00,73.2,49.4,31.01,South,171,8.7,8.7,43,0.00,,,0.00,VWS V13.01,2013-05-08 22:29:00,
2013-05-08 17:30:00,73.2,49.4,31.01,SE,143,6.3,6.3,43,0.00,,,0.00,VWS V13.01,2013-05-08 22:30:00,
2013-05-08 17:31:00,73.6,49.7,31.01,SE,145,4.0,4.0,43,0.00,,,0.00,VWS V13.01,2013-05-08 22:31:00,
2013-05-08 17:33:00,73.2,49.4,31.01,SE,142,7.2,7.2,43,0.00,,,0.00,VWS V13.01,2013-05-08 22:33:00,
2013-05-08 17:34:00,72.9,49.1,31.01,SE,144,7.2,7.2,43,0.00,,,0.00,VWS V13.01,2013-05-08 22:34:00,
2013-05-08 17:35:00,73.0,49.2,31.01,SE,146,4.9,4.9,43,0.00,,,0.00,VWS V13.01,2013-05-08 22:35:00,
2013-05-08 17:36:00,73.2,49.4,31.01,SE,146,6.3,6.3,43,0.00,,,0.00,VWS V13.01,2013-05-08 22:36:00,
2013-05-08 17:38:00,73.6,49.7,31.01,South,179,8.1,8.1,43,0.00,,,0.00,VWS V13.01,2013-05-08 22:38:00,
2013-05-08 17:39:00,73.6,49.7,31.01,SSE,166,10.1,10.1,43,0.00,,,0.00,VWS V13.01,2013-05-08 22:39:00,
2013-05-08 17:40:00,73.0,49.2,31.01,South,179,9.2,9.2,43,0.00,,,0.00,VWS V13.01,2013-05-08 22:40:00,
2013-05-08 17:41:00,72.7,48.9,31.01,South,171,8.7,8.7,43,0.00,,,0.00,VWS V13.01,2013-05-08 22:41:00,
2013-05-08 17:43:00,72.5,48.8,31.01,South,175,10.1,10.1,43,0.00,,,0.00,VWS V13.01,2013-05-08 22:43:00,
2013-05-08 17:45:00,72.7,48.9,31.01,SSE,155,5.4,5.4,43,0.00,,,0.00,VWS V13.01,2013-05-08 22:45:00,
2013-05-08 17:46:00,72.7,48.9,31.01,SSE,159,5.8,5.8,43,0.00,,,0.00,VWS V13.01,2013-05-08 22:46:00,
2013-05-08 17:47:00,72.7,48.9,31.01,SSE,168,5.8,5.8,43,0.00,,,0.00,VWS V13.01,2013-05-08 22:47:00,
2013-05-08 17:48:00,72.7,48.9,31.01,SE,140,5.8,5.8,43,0.00,,,0.00,VWS V13.01,2013-05-08 22:48:00,
2013-05-08 17:50:00,72.3,48.6,31.01,SE,145,6.3,6.3,43,0.00,,,0.00,VWS V13.01,2013-05-08 22:50:00,
2013-05-08 17:51:00,72.3,48.6,31.01,SE,139,8.7,8.7,43,0.00,,,0.00,VWS V13.01,2013-05-08 22:51:00,
2013-05-08 17:52:00,72.3,48.6,31.01,South,178,8.7,8.7,43,0.00,,,0.00,VWS V13.01,2013-05-08 22:52:00,
2013-05-08 17:53:00,72.5,48.8,31.01,South,185,8.3,8.3,43,0.00,,,0.00,VWS V13.01,2013-05-08 22:53:00,
2013-05-08 17:55:00,72.9,49.1,31.01,SE,146,5.4,5.4,43,0.00,,,0.00,VWS V13.01,2013-05-08 22:55:00,
2013-05-08 17:57:00,73.0,49.2,31.01,South,179,8.1,8.1,43,0.00,,,0.00,VWS V13.01,2013-05-08 22:57:00,
2013-05-08 17:58:00,72.7,48.9,31.01,South,171,6.3,6.3,43,0.00,,,0.00,VWS V13.01,2013-05-08 22:58:00,
2013-05-08 18:00:00,72.7,48.9,31.01,SSE,156,4.9,4.9,43,0.00,,,0.00,VWS V13.01,2013-05-08 23:00:00,
2013-05-08 18:02:00,72.7,48.9,31.01,SSE,147,6.3,6.3,43,0.00,,,0.00,VWS V13.01,2013-05-08 23:02:00,
2013-05-08 18:04:00,72.3,48.6,31.01,SSE,164,4.9,4.9,43,0.00,,,0.00,VWS V13.01,2013-05-08 23:04:00,
2013-05-08 18:05:00,72.5,48.8,31.01,SSE,154,8.3,8.3,43,0.00,,,0.00,VWS V13.01,2013-05-08 23:05:00,
2013-05-08 18:07:00,72.1,48.4,31.01,South,175,8.7,8.7,43,0.00,,,0.00,VWS V13.01,2013-05-08 23:07:00,
2013-05-08 18:09:00,72.3,48.6,31.01,South,177,5.4,5.4,43,0.00,,,0.00,VWS V13.01,2013-05-08 23:09:00,
2013-05-08 18:10:00,72.0,48.3,31.01,South,170,8.3,8.3,43,0.00,,,0.00,VWS V13.01,2013-05-08 23:10:00,
2013-05-08 18:12:00,72.1,48.4,31.01,SSE,166,7.2,7.2,43,0.00,,,0.00,VWS V13.01,2013-05-08 23:12:00,
2013-05-08 18:14:00,71.8,48.1,31.01,South,169,8.3,8.3,43,0.00,,,0.00,VWS V13.01,2013-05-08 23:14:00,
2013-05-08 18:15:00,72.0,48.3,31.01,SSE,147,6.3,6.3,43,0.00,,,0.00,VWS V13.01,2013-05-08 23:15:00,
2013-05-08 18:16:00,71.8,48.1,31.01,SSE,164,10.5,10.5,43,0.00,,,0.00,VWS V13.01,2013-05-08 23:16:00,
2013-05-08 18:17:00,71.8,48.1,31.01,SE,140,5.4,5.4,43,0.00,,,0.00,VWS V13.01,2013-05-08 23:17:00,
2013-05-08 18:19:00,71.6,47.9,31.01,SSE,147,6.3,6.3,43,0.00,,,0.00,VWS V13.01,2013-05-08 23:19:00,
2013-05-08 18:20:00,71.6,47.9,31.01,South,178,4.9,4.9,43,0.00,,,0.00,VWS V13.01,2013-05-08 23:20:00,
2013-05-08 18:21:00,71.6,47.9,31.01,SSE,149,3.6,3.6,43,0.00,,,0.00,VWS V13.01,2013-05-08 23:21:00,
2013-05-08 18:22:00,71.6,47.9,31.01,SSE,154,8.3,8.3,43,0.00,,,0.00,VWS V13.01,2013-05-08 23:22:00,
2013-05-08 18:24:00,71.8,48.1,31.01,South,172,5.8,5.8,43,0.00,,,0.00,VWS V13.01,2013-05-08 23:24:00,
2013-05-08 18:25:00,71.6,47.9,31.01,South,174,5.8,5.8,43,0.00,,,0.00,VWS V13.01,2013-05-08 23:25:00,
2013-05-08 18:26:00,71.6,47.9,31.01,South,169,6.3,6.3,43,0.00,,,0.00,VWS V13.01,2013-05-08 23:26:00,
2013-05-08 18:27:00,71.6,47.9,31.01,SSE,150,5.8,5.8,43,0.00,,,0.00,VWS V13.01,2013-05-08 23:27:00,
2013-05-08 18:29:00,71.8,48.1,31.01,SE,139,8.3,8.3,43,0.00,,,0.00,VWS V13.01,2013-05-08 23:29:00,
2013-05-08 18:30:00,71.8,48.1,31.01,South,173,4.0,4.0,43,0.00,,,0.00,VWS V13.01,2013-05-08 23:30:00,
2013-05-08 18:31:00,71.8,48.1,31.01,South,178,6.3,6.3,43,0.00,,,0.00,VWS V13.01,2013-05-08 23:31:00,
2013-05-08 18:32:00,71.8,48.1,31.01,South,174,6.3,6.3,43,0.00,,,0.00,VWS V13.01,2013-05-08 23:32:00,
2013-05-08 18:34:00,71.8,48.1,31.01,SE,139,6.3,6.3,43,0.00,,,0.00,VWS V13.01,2013-05-08 23:34:00,
2013-05-08 18:35:00,71.6,47.9,31.01,South,180,8.3,8.3,43,0.00,,,0.00,VWS V13.01,2013-05-08 23:35:00,
2013-05-08 18:36:00,71.6,47.9,31.01,South,174,8.7,8.7,43,0.00,,,0.00,VWS V13.01,2013-05-08 23:36:00,
2013-05-08 18:37:00,71.6,47.9,31.01,SE,144,7.6,7.6,43,0.00,,,0.00,VWS V13.01,2013-05-08 23:37:00,
2013-05-08 18:39:00,71.6,47.9,31.01,South,173,8.7,8.7,43,0.00,,,0.00,VWS V13.01,2013-05-08 23:39:00,
2013-05-08 18:40:00,71.6,47.9,31.01,SSE,164,10.1,10.1,43,0.00,,,0.00,VWS V13.01,2013-05-08 23:40:00,
2013-05-08 18:41:00,71.6,47.9,31.01,South,181,8.1,8.1,43,0.00,,,0.00,VWS V13.01,2013-05-08 23:41:00,
2013-05-08 18:42:00,71.6,47.9,31.01,South,177,7.6,7.6,43,0.00,,,0.00,VWS V13.01,2013-05-08 23:42:00,
2013-05-08 18:44:00,71.6,47.9,31.01,South,175,8.1,8.1,43,0.00,,,0.00,VWS V13.01,2013-05-08 23:44:00,
2013-05-08 18:45:00,71.4,51.3,31.01,SE,140,7.6,7.6,49,0.00,,,0.00,VWS V13.01,2013-05-08 23:45:00,
2013-05-08 18:46:00,71.6,47.9,31.01,South,173,6.3,6.3,43,0.00,,,0.00,VWS V13.01,2013-05-08 23:46:00,
2013-05-08 18:47:00,71.8,48.1,31.01,South,174,7.6,7.6,43,0.00,,,0.00,VWS V13.01,2013-05-08 23:47:00,
2013-05-08 18:48:00,71.8,48.1,31.01,South,190,7.6,7.6,43,0.00,,,0.00,VWS V13.01,2013-05-08 23:48:00,
2013-05-08 18:49:00,71.8,48.1,31.01,South,173,8.3,8.3,43,0.00,,,0.00,VWS V13.01,2013-05-08 23:49:00,
2013-05-08 18:50:00,71.8,48.1,31.01,South,190,4.9,4.9,43,0.00,,,0.00,VWS V13.01,2013-05-08 23:50:00,
2013-05-08 18:51:00,71.8,48.1,31.01,South,169,5.4,5.4,43,0.00,,,0.00,VWS V13.01,2013-05-08 23:51:00,
2013-05-08 18:52:00,71.8,48.1,31.01,SSE,148,4.5,4.5,43,0.00,,,0.00,VWS V13.01,2013-05-08 23:52:00,
2013-05-08 18:53:00,71.6,47.9,31.01,South,174,6.3,6.3,43,0.00,,,0.00,VWS V13.01,2013-05-08 23:53:00,
2013-05-08 18:54:00,71.4,51.3,31.01,South,182,6.3,6.3,49,0.00,,,0.00,VWS V13.01,2013-05-08 23:54:00,
2013-05-08 18:55:00,71.4,51.3,31.01,SSE,168,5.8,5.8,49,0.00,,,0.00,VWS V13.01,2013-05-08 23:55:00,
2013-05-08 18:56:00,71.2,51.1,31.01,South,173,8.1,8.1,49,0.00,,,0.00,VWS V13.01,2013-05-08 23:56:00,
2013-05-08 18:57:00,71.4,51.3,30.98,SSE,166,5.4,5.4,49,0.00,,,0.00,VWS V13.01,2013-05-08 23:57:00,
2013-05-08 18:58:00,71.4,51.3,30.98,South,171,5.4,5.4,49,0.00,,,0.00,VWS V13.01,2013-05-08 23:58:00,
2013-05-08 18:59:00,71.4,51.3,30.98,SSE,165,8.3,8.3,49,0.00,,,0.00,VWS V13.01,2013-05-08 23:59:00,
2013-05-08 19:00:00,71.4,51.3,30.98,South,175,7.6,7.6,49,0.00,,,0.00,VWS V13.01,2013-05-09 00:00:00,
2013-05-08 19:01:00,71.2,51.1,30.98,South,175,6.3,6.3,49,0.00,,,0.00,VWS V13.01,2013-05-09 00:01:00,
2013-05-08 19:02:00,71.4,51.3,30.98,South,179,6.3,6.3,49,0.00,,,0.00,VWS V13.01,2013-05-09 00:02:00,
2013-05-08 19:03:00,71.4,51.3,30.98,South,178,8.1,8.1,49,0.00,,,0.00,VWS V13.01,2013-05-09 00:03:00,
2013-05-08 19:04:00,71.2,51.1,30.98,South,182,7.6,7.6,49,0.00,,,0.00,VWS V13.01,2013-05-09 00:04:00,
2013-05-08 19:05:00,71.4,51.3,30.98,South,181,4.9,4.9,49,0.00,,,0.00,VWS V13.01,2013-05-09 00:05:00,
2013-05-08 19:07:00,71.2,51.1,30.98,South,181,3.1,3.1,49,0.00,,,0.00,VWS V13.01,2013-05-09 00:07:00,
2013-05-08 19:08:00,71.2,51.1,30.98,South,181,5.4,5.4,49,0.00,,,0.00,VWS V13.01,2013-05-09 00:08:00,
2013-05-08 19:09:00,71.2,51.1,30.98,South,181,4.5,4.5,49,0.00,,,0.00,VWS V13.01,2013-05-09 00:09:00,
2013-05-08 19:10:00,71.2,51.1,30.98,South,181,3.1,3.1,49,0.00,,,0.00,VWS V13.01,2013-05-09 00:10:00,
2013-05-08 19:12:00,71.1,51.0,30.98,South,181,3.6,3.6,49,0.00,,,0.00,VWS V13.01,2013-05-09 00:12:00,
2013-05-08 19:13:00,71.1,51.0,30.98,South,181,2.2,2.2,49,0.00,,,0.00,VWS V13.01,2013-05-09 00:13:00,
2013-05-08 19:14:00,70.9,50.8,30.98,South,181,2.7,2.7,49,0.00,,,0.00,VWS V13.01,2013-05-09 00:14:00,
2013-05-08 19:15:00,70.9,50.8,30.98,South,181,2.2,2.2,49,0.00,,,0.00,VWS V13.01,2013-05-09 00:15:00,
2013-05-08 19:17:00,70.9,50.8,30.98,South,181,2.2,2.2,49,0.00,,,0.00,VWS V13.01,2013-05-09 00:17:00,
2013-05-08 19:18:00,70.9,50.8,30.98,South,181,2.7,2.7,49,0.00,,,0.00,VWS V13.01,2013-05-09 00:18:00,
2013-05-08 19:19:00,70.9,50.8,30.98,South,181,3.6,3.6,49,0.00,,,0.00,VWS V13.01,2013-05-09 00:19:00,
2013-05-08 19:21:00,70.9,50.8,30.98,South,181,3.6,3.6,49,0.00,,,0.00,VWS V13.01,2013-05-09 00:21:00,
2013-05-08 19:22:00,70.9,50.8,30.98,South,181,3.1,3.1,49,0.00,,,0.00,VWS V13.01,2013-05-09 00:22:00,
2013-05-08 19:23:00,70.5,50.5,30.98,South,181,5.8,5.8,49,0.00,,,0.00,VWS V13.01,2013-05-09 00:23:00,
2013-05-08 19:24:00,70.3,50.3,30.98,South,181,3.6,3.6,49,0.00,,,0.00,VWS V13.01,2013-05-09 00:24:00,
2013-05-08 19:26:00,70.2,50.1,30.98,South,181,4.0,4.0,49,0.00,,,0.00,VWS V13.01,2013-05-09 00:26:00,
2013-05-08 19:27:00,70.0,50.0,31.01,South,181,3.6,3.6,49,0.00,,,0.00,VWS V13.01,2013-05-09 00:27:00,
2013-05-08 19:28:00,70.0,50.0,31.01,South,181,4.0,4.0,49,0.00,,,0.00,VWS V13.01,2013-05-09 00:28:00,
2013-05-08 19:30:00,69.8,49.8,31.01,South,181,2.2,2.2,49,0.00,,,0.00,VWS V13.01,2013-05-09 00:30:00,
2013-05-08 19:31:00,69.6,49.6,31.01,South,181,0.0,0.0,49,0.00,,,0.00,VWS V13.01,2013-05-09 00:31:00,
2013-05-08 19:32:00,69.6,49.6,31.01,South,181,0.0,0.0,49,0.00,,,0.00,VWS V13.01,2013-05-09 00:32:00,
2013-05-08 19:33:00,69.4,49.5,31.01,South,181,0.0,0.0,49,0.00,,,0.00,VWS V13.01,2013-05-09 00:33:00,
2013-05-08 19:35:00,69.6,49.6,31.01,South,181,0.0,0.0,49,0.00,,,0.00,VWS V13.01,2013-05-09 00:35:00,
2013-05-08 19:36:00,69.6,49.6,31.01,South,181,0.0,0.0,49,0.00,,,0.00,VWS V13.01,2013-05-09 00:36:00,
2013-05-08 19:37:00,69.6,49.6,31.01,South,181,0.0,0.0,49,0.00,,,0.00,VWS V13.01,2013-05-09 00:37:00,
2013-05-08 19:38:00,69.6,49.6,31.01,South,181,0.0,0.0,49,0.00,,,0.00,VWS V13.01,2013-05-09 00:38:00,
2013-05-08 19:40:00,69.8,49.8,31.01,South,181,0.0,0.0,49,0.00,,,0.00,VWS V13.01,2013-05-09 00:40:00,
2013-05-08 19:41:00,69.8,49.8,31.01,South,181,0.0,0.0,49,0.00,,,0.00,VWS V13.01,2013-05-09 00:41:00,
2013-05-08 19:42:00,69.8,49.8,31.01,South,181,0.0,0.0,49,0.00,,,0.00,VWS V13.01,2013-05-09 00:42:00,
2013-05-08 19:43:00,69.8,49.8,31.01,South,181,0.0,0.0,49,0.00,,,0.00,VWS V13.01,2013-05-09 00:43:00,
2013-05-08 19:45:00,69.8,49.8,31.01,South,181,0.0,0.0,49,0.00,,,0.00,VWS V13.01,2013-05-09 00:45:00,
2013-05-08 19:46:00,69.8,49.8,31.01,South,181,0.0,0.0,49,0.00,,,0.00,VWS V13.01,2013-05-09 00:46:00,
2013-05-08 19:47:00,69.8,49.8,31.01,South,181,0.0,0.0,49,0.00,,,0.00,VWS V13.01,2013-05-09 00:47:00,
2013-05-08 19:48:00,69.8,49.8,31.01,South,181,0.0,0.0,49,0.00,,,0.00,VWS V13.01,2013-05-09 00:48:00,
2013-05-08 19:50:00,69.6,49.6,31.01,South,181,0.0,0.0,49,0.00,,,0.00,VWS V13.01,2013-05-09 00:50:00,
2013-05-08 19:52:00,69.6,49.6,31.01,South,181,0.0,0.0,49,0.00,,,0.00,VWS V13.01,2013-05-09 00:52:00,
2013-05-08 19:53:00,69.6,49.6,31.01,South,181,0.0,0.0,49,0.00,,,0.00,VWS V13.01,2013-05-09 00:53:00,
2013-05-08 19:56:00,69.4,49.5,31.01,South,181,0.0,0.0,49,0.00,,,0.00,VWS V13.01,2013-05-09 00:56:00,
2013-05-08 19:57:00,69.4,49.5,31.01,South,181,0.0,0.0,49,0.00,,,0.00,VWS V13.01,2013-05-09 00:57:00,
2013-05-08 19:58:00,69.4,49.5,31.01,South,181,0.0,0.0,49,0.00,,,0.00,VWS V13.01,2013-05-09 00:58:00,
2013-05-08 19:59:00,69.4,49.5,31.01,South,181,0.0,0.0,49,0.00,,,0.00,VWS V13.01,2013-05-09 00:59:00,
2013-05-08 20:01:00,69.3,49.3,31.01,South,181,0.0,0.0,49,0.00,,,0.00,VWS V13.01,2013-05-09 01:01:00,
2013-05-08 20:02:00,69.3,49.3,31.01,South,181,0.0,0.0,49,0.00,,,0.00,VWS V13.01,2013-05-09 01:02:00,
2013-05-08 20:03:00,69.3,49.3,31.01,South,181,0.0,0.0,49,0.00,,,0.00,VWS V13.01,2013-05-09 01:03:00,
2013-05-08 20:04:00,69.1,49.1,31.01,South,181,0.0,0.0,49,0.00,,,0.00,VWS V13.01,2013-05-09 01:04:00,
2013-05-08 20:06:00,68.9,49.0,31.01,South,181,0.0,0.0,49,0.00,,,0.00,VWS V13.01,2013-05-09 01:06:00,
2013-05-08 20:07:00,68.9,49.0,31.01,South,181,0.0,0.0,49,0.00,,,0.00,VWS V13.01,2013-05-09 01:07:00,
2013-05-08 20:08:00,68.7,48.8,31.01,South,181,0.0,0.0,49,0.00,,,0.00,VWS V13.01,2013-05-09 01:08:00,
2013-05-08 20:09:00,68.7,48.8,31.01,South,181,0.0,0.0,49,0.00,,,0.00,VWS V13.01,2013-05-09 01:09:00,
2013-05-08 20:11:00,68.7,48.8,31.01,South,181,0.0,0.0,49,0.00,,,0.00,VWS V13.01,2013-05-09 01:11:00,
2013-05-08 20:12:00,68.5,48.6,31.01,South,181,0.0,0.0,49,0.00,,,0.00,VWS V13.01,2013-05-09 01:12:00,
2013-05-08 20:13:00,68.5,48.6,31.01,South,181,0.0,0.0,49,0.00,,,0.00,VWS V13.01,2013-05-09 01:13:00,
2013-05-08 20:14:00,68.4,48.5,31.01,South,181,0.0,0.0,49,0.00,,,0.00,VWS V13.01,2013-05-09 01:14:00,
2013-05-08 20:16:00,68.4,48.5,31.01,South,181,0.0,0.0,49,0.00,,,0.00,VWS V13.01,2013-05-09 01:16:00,
2013-05-08 20:18:00,68.4,48.5,31.01,South,181,0.0,0.0,49,0.00,,,0.00,VWS V13.01,2013-05-09 01:18:00,
2013-05-08 20:19:00,68.2,48.3,31.01,South,181,0.0,0.0,49,0.00,,,0.00,VWS V13.01,2013-05-09 01:19:00,
2013-05-08 20:21:00,68.0,48.2,31.01,South,181,0.0,0.0,49,0.00,,,0.00,VWS V13.01,2013-05-09 01:21:00,
2013-05-08 20:23:00,67.8,48.0,31.01,South,186,4.0,4.0,49,0.00,,,0.00,VWS V13.01,2013-05-09 01:23:00,
2013-05-08 20:24:00,68.0,48.2,31.01,South,182,4.0,4.0,49,0.00,,,0.00,VWS V13.01,2013-05-09 01:24:00,
2013-05-08 20:27:00,68.4,48.5,31.01,South,183,5.4,5.4,49,0.00,,,0.00,VWS V13.01,2013-05-09 01:27:00,
2013-05-08 20:28:00,68.4,48.5,31.01,South,183,3.1,3.1,49,0.00,,,0.00,VWS V13.01,2013-05-09 01:28:00,
2013-05-08 20:29:00,68.2,48.3,31.01,South,183,0.0,0.0,49,0.00,,,0.00,VWS V13.01,2013-05-09 01:29:00,
2013-05-08 20:32:00,68.0,48.2,31.01,South,183,3.6,3.6,49,0.00,,,0.00,VWS V13.01,2013-05-09 01:32:00,
2013-05-08 20:33:00,68.0,48.2,31.01,South,178,4.9,4.9,49,0.00,,,0.00,VWS V13.01,2013-05-09 01:33:00,
2013-05-08 20:34:00,67.8,48.0,31.01,South,183,5.4,5.4,49,0.00,,,0.00,VWS V13.01,2013-05-09 01:34:00,
2013-05-08 20:37:00,67.3,47.5,31.01,South,191,4.0,4.0,49,0.00,,,0.00,VWS V13.01,2013-05-09 01:37:00,
2013-05-08 20:38:00,66.0,49.4,31.01,SE,140,4.0,4.0,55,0.00,,,0.00,VWS V13.01,2013-05-09 01:38:00,
2013-05-08 20:39:00,65.8,49.2,31.01,SE,140,0.0,0.0,55,0.00,,,0.00,VWS V13.01,2013-05-09 01:39:00,
2013-05-08 20:42:00,64.4,47.9,31.01,SE,140,0.0,0.0,55,0.00,,,0.00,VWS V13.01,2013-05-09 01:42:00,
2013-05-08 20:43:00,63.5,47.1,31.01,SE,140,0.0,0.0,55,0.00,,,0.00,VWS V13.01,2013-05-09 01:43:00,
2013-05-08 20:44:00,63.3,46.9,31.01,SE,140,0.0,0.0,55,0.00,,,0.00,VWS V13.01,2013-05-09 01:44:00,
2013-05-08 20:47:00,62.4,48.8,31.01,SE,140,0.0,0.0,61,0.00,,,0.00,VWS V13.01,2013-05-09 01:47:00,
2013-05-08 20:48:00,62.2,53.5,31.01,SE,140,0.0,0.0,73,0.00,,,0.00,VWS V13.01,2013-05-09 01:48:00,
2013-05-08 20:49:00,62.2,53.5,31.01,SE,140,0.0,0.0,73,0.00,,,0.00,VWS V13.01,2013-05-09 01:49:00,
2013-05-08 20:52:00,61.9,53.1,31.01,ESE,114,0.0,0.0,73,0.00,,,0.00,VWS V13.01,2013-05-09 01:52:00,
2013-05-08 20:53:00,61.7,53.0,31.01,ESE,114,0.0,0.0,73,0.00,,,0.00,VWS V13.01,2013-05-09 01:53:00,
2013-05-08 20:54:00,61.7,53.0,31.01,ESE,114,0.0,0.0,73,0.00,,,0.00,VWS V13.01,2013-05-09 01:54:00,
2013-05-08 20:57:00,61.5,58.9,31.01,ESE,114,0.0,0.0,91,0.00,,,0.00,VWS V13.01,2013-05-09 01:57:00,
2013-05-08 20:58:00,61.5,58.9,31.01,ESE,114,0.0,0.0,91,0.00,,,0.00,VWS V13.01,2013-05-09 01:58:00,
2013-05-08 20:59:00,61.3,58.7,31.01,ESE,114,0.0,0.0,91,0.00,,,0.00,VWS V13.01,2013-05-09 01:59:00,
2013-05-08 21:03:00,61.2,61.2,31.01,ESE,114,0.0,0.0,100,0.00,,,0.00,VWS V13.01,2013-05-09 02:03:00,
2013-05-08 21:04:00,61.2,61.2,31.01,ESE,114,0.0,0.0,100,0.00,,,0.00,VWS V13.01,2013-05-09 02:04:00,
2013-05-08 21:08:00,61.0,61.0,31.01,ESE,114,0.0,0.0,100,0.00,,,0.00,VWS V13.01,2013-05-09 02:08:00,
2013-05-08 21:09:00,61.2,61.2,31.01,ESE,114,0.0,0.0,100,0.00,,,0.00,VWS V13.01,2013-05-09 02:09:00,
2013-05-08 21:13:00,61.2,61.2,31.01,ESE,114,0.0,0.0,100,0.00,,,0.00,VWS V13.01,2013-05-09 02:13:00,
2013-05-08 21:14:00,61.2,61.2,31.01,ESE,114,0.0,0.0,100,0.00,,,0.00,VWS V13.01,2013-05-09 02:14:00,
2013-05-08 21:15:00,61.2,61.2,31.01,ESE,114,0.0,0.0,100,0.00,,,0.00,VWS V13.01,2013-05-09 02:15:00,
2013-05-08 21:18:00,61.3,61.3,31.01,ESE,114,0.0,0.0,100,0.00,,,0.00,VWS V13.01,2013-05-09 02:18:00,
2013-05-08 21:19:00,61.3,61.3,31.01,ESE,114,0.0,0.0,100,0.00,,,0.00,VWS V13.01,2013-05-09 02:19:00,
2013-05-08 21:20:00,61.3,61.3,31.01,ESE,114,0.0,0.0,100,0.00,,,0.00,VWS V13.01,2013-05-09 02:20:00,
2013-05-08 21:23:00,61.2,61.2,31.01,ESE,114,0.0,0.0,100,0.00,,,0.00,VWS V13.01,2013-05-09 02:23:00,
2013-05-08 21:24:00,61.2,61.2,31.01,ESE,114,0.0,0.0,100,0.00,,,0.00,VWS V13.01,2013-05-09 02:24:00,
2013-05-08 21:25:00,61.2,61.2,31.01,ESE,114,0.0,0.0,100,0.00,,,0.00,VWS V13.01,2013-05-09 02:25:00,
2013-05-08 21:28:00,61.2,61.2,31.01,ESE,114,0.0,0.0,100,0.00,,,0.00,VWS V13.01,2013-05-09 02:28:00,
2013-05-08 21:29:00,61.2,61.2,31.01,ESE,106,0.0,0.0,100,0.00,,,0.00,VWS V13.01,2013-05-09 02:29:00,
2013-05-08 21:30:00,61.2,61.2,31.01,ESE,102,0.0,0.0,100,0.00,,,0.00,VWS V13.01,2013-05-09 02:30:00,
2013-05-08 21:33:00,61.0,61.0,31.01,ESE,102,0.0,0.0,100,0.00,,,0.00,VWS V13.01,2013-05-09 02:33:00,
2013-05-08 21:34:00,61.0,61.0,31.01,ESE,102,0.0,0.0,100,0.00,,,0.00,VWS V13.01,2013-05-09 02:34:00,
2013-05-08 21:35:00,61.0,61.0,31.01,ESE,102,0.0,0.0,100,0.00,,,0.00,VWS V13.01,2013-05-09 02:35:00,
2013-05-08 21:36:00,61.0,61.0,31.01,ESE,102,0.0,0.0,100,0.00,,,0.00,VWS V13.01,2013-05-09 02:36:00,
2013-05-08 21:38:00,60.8,60.8,31.01,ESE,102,0.0,0.0,100,0.00,,,0.00,VWS V13.01,2013-05-09 02:38:00,
2013-05-08 21:39:00,60.8,60.8,31.01,ESE,102,0.0,0.0,100,0.00,,,0.00,VWS V13.01,2013-05-09 02:39:00,
2013-05-08 21:40:00,60.8,60.8,31.01,ESE,102,0.0,0.0,100,0.00,,,0.00,VWS V13.01,2013-05-09 02:40:00,
2013-05-08 21:41:00,60.8,60.8,31.01,ESE,102,0.0,0.0,100,0.00,,,0.00,VWS V13.01,2013-05-09 02:41:00,
2013-05-08 21:43:00,61.0,61.0,31.01,ESE,102,0.0,0.0,100,0.00,,,0.00,VWS V13.01,2013-05-09 02:43:00,
2013-05-08 21:44:00,61.0,61.0,31.01,ESE,102,0.0,0.0,100,0.00,,,0.00,VWS V13.01,2013-05-09 02:44:00,
2013-05-08 21:45:00,61.0,61.0,31.01,ESE,102,0.0,0.0,100,0.00,,,0.00,VWS V13.01,2013-05-09 02:45:00,
2013-05-08 21:46:00,61.2,61.2,31.01,ESE,102,0.0,0.0,100,0.00,,,0.00,VWS V13.01,2013-05-09 02:46:00,
2013-05-08 21:48:00,61.3,61.3,31.01,ESE,102,0.0,0.0,100,0.00,,,0.00,VWS V13.01,2013-05-09 02:48:00,
2013-05-08 21:50:00,61.5,61.5,31.01,ESE,102,0.0,0.0,100,0.00,,,0.00,VWS V13.01,2013-05-09 02:50:00,
2013-05-08 21:51:00,61.5,61.5,31.01,ESE,102,0.0,0.0,100,0.00,,,0.00,VWS V13.01,2013-05-09 02:51:00,
2013-05-08 21:53:00,62.1,62.1,31.01,ESE,102,0.0,0.0,100,0.00,,,0.00,VWS V13.01,2013-05-09 02:53:00,
2013-05-08 21:55:00,62.2,62.2,31.01,SSE,150,0.0,0.0,100,0.00,,,0.00,VWS V13.01,2013-05-09 02:55:00,
2013-05-08 21:56:00,62.4,62.4,31.01,South,172,0.0,0.0,100,0.00,,,0.00,VWS V13.01,2013-05-09 02:56:00,
2013-05-08 21:59:00,63.0,63.0,31.01,SSE,164,0.0,0.0,100,0.00,,,0.00,VWS V13.01,2013-05-09 02:59:00,
2013-05-08 22:00:00,63.1,63.1,31.01,SSE,163,0.0,0.0,100,0.00,,,0.00,VWS V13.01,2013-05-09 03:00:00,
2013-05-08 22:01:00,63.1,63.1,31.01,SSE,163,0.0,0.0,100,0.00,,,0.00,VWS V13.01,2013-05-09 03:01:00,
2013-05-08 22:04:00,63.3,58.7,31.01,SSE,163,0.0,0.0,85,0.00,,,0.00,VWS V13.01,2013-05-09 03:04:00,
2013-05-08 22:05:00,63.5,58.9,31.01,SSE,163,0.0,0.0,85,0.00,,,0.00,VWS V13.01,2013-05-09 03:05:00,
2013-05-08 22:06:00,63.5,58.9,31.01,SSE,163,0.0,0.0,85,0.00,,,0.00,VWS V13.01,2013-05-09 03:06:00,
2013-05-08 22:09:00,63.9,55.0,31.01,SSE,162,2.7,2.7,73,0.00,,,0.00,VWS V13.01,2013-05-09 03:09:00,
2013-05-08 22:11:00,64.0,55.2,31.01,SSE,156,2.7,2.7,73,0.00,,,0.00,VWS V13.01,2013-05-09 03:11:00,
2013-05-08 22:12:00,64.2,55.4,31.01,SSE,153,3.1,3.1,73,0.00,,,0.00,VWS V13.01,2013-05-09 03:12:00,
2013-05-08 22:14:00,64.4,53.2,31.01,SSE,151,3.1,3.1,67,0.00,,,0.00,VWS V13.01,2013-05-09 03:14:00,
2013-05-08 22:16:00,64.4,53.2,31.01,SSE,153,2.2,2.2,67,0.00,,,0.00,VWS V13.01,2013-05-09 03:16:00,
2013-05-08 22:17:00,64.6,53.4,31.01,SSE,153,4.0,4.0,67,0.00,,,0.00,VWS V13.01,2013-05-09 03:17:00,
2013-05-08 22:19:00,64.8,53.6,31.01,South,173,4.0,4.0,67,0.00,,,0.00,VWS V13.01,2013-05-09 03:19:00,
2013-05-08 22:21:00,64.8,53.6,31.01,SSE,168,3.6,3.6,67,0.00,,,0.00,VWS V13.01,2013-05-09 03:21:00,
2013-05-08 22:22:00,64.8,53.6,31.01,SSE,168,3.1,3.1,67,0.00,,,0.00,VWS V13.01,2013-05-09 03:22:00,
2013-05-08 22:24:00,64.9,53.7,31.01,South,182,3.1,3.1,67,0.00,,,0.00,VWS V13.01,2013-05-09 03:24:00,
2013-05-08 22:26:00,64.8,53.6,31.01,SSE,167,3.6,3.6,67,0.00,,,0.00,VWS V13.01,2013-05-09 03:26:00,
2013-05-08 22:28:00,64.9,53.7,31.01,SSE,150,5.8,5.8,67,0.00,,,0.00,VWS V13.01,2013-05-09 03:28:00,
2013-05-08 22:29:00,65.1,53.9,31.01,SSE,156,4.9,4.9,67,0.00,,,0.00,VWS V13.01,2013-05-09 03:29:00,
2013-05-08 22:31:00,64.9,53.7,31.01,SE,145,5.4,5.4,67,0.00,,,0.00,VWS V13.01,2013-05-09 03:31:00,
2013-05-08 22:33:00,64.9,53.7,31.01,SE,139,5.4,5.4,67,0.00,,,0.00,VWS V13.01,2013-05-09 03:33:00,
2013-05-08 22:34:00,64.8,53.6,31.01,SE,143,5.8,5.8,67,0.00,,,0.00,VWS V13.01,2013-05-09 03:34:00,
2013-05-08 22:36:00,64.2,55.4,31.01,SSE,154,4.9,4.9,73,0.00,,,0.00,VWS V13.01,2013-05-09 03:36:00,
2013-05-08 22:37:00,63.9,55.0,31.01,SE,141,4.9,4.9,73,0.00,,,0.00,VWS V13.01,2013-05-09 03:37:00,
2013-05-08 22:38:00,63.1,54.3,31.01,SE,144,5.4,5.4,73,0.00,,,0.00,VWS V13.01,2013-05-09 03:38:00,
2013-05-08 22:40:00,62.6,53.8,31.01,SSE,158,5.8,5.8,73,0.00,,,0.00,VWS V13.01,2013-05-09 03:40:00,
2013-05-08 22:41:00,62.2,53.5,31.01,SE,144,4.0,4.0,73,0.00,,,0.00,VWS V13.01,2013-05-09 03:41:00,
2013-05-08 22:42:00,62.2,53.5,31.01,SE,144,4.0,4.0,73,0.00,,,0.00,VWS V13.01,2013-05-09 03:42:00,
2013-05-08 22:43:00,62.1,53.3,31.01,SSE,147,4.0,4.0,73,0.00,,,0.00,VWS V13.01,2013-05-09 03:43:00,
2013-05-08 22:45:00,61.7,59.0,31.01,SSE,147,3.1,3.1,91,0.00,,,0.00,VWS V13.01,2013-05-09 03:45:00,
2013-05-08 22:46:00,61.5,58.9,31.01,SSE,147,4.0,4.0,91,0.00,,,0.00,VWS V13.01,2013-05-09 03:46:00,
2013-05-08 22:47:00,61.5,58.9,31.01,SSE,147,4.0,4.0,91,0.00,,,0.00,VWS V13.01,2013-05-09 03:47:00,
2013-05-08 22:48:00,61.3,58.7,31.01,SSE,147,4.0,4.0,91,0.00,,,0.00,VWS V13.01,2013-05-09 03:48:00,
2013-05-08 22:50:00,61.3,58.7,31.01,SSE,147,3.1,3.1,91,0.00,,,0.00,VWS V13.01,2013-05-09 03:50:00,
2013-05-08 22:51:00,61.2,61.2,31.01,SSE,147,3.6,3.6,100,0.00,,,0.00,VWS V13.01,2013-05-09 03:51:00,
2013-05-08 22:52:00,61.2,61.2,31.01,SSE,147,3.6,3.6,100,0.00,,,0.00,VWS V13.01,2013-05-09 03:52:00,
2013-05-08 22:53:00,61.2,61.2,31.01,SSE,147,3.6,3.6,100,0.00,,,0.00,VWS V13.01,2013-05-09 03:53:00,
2013-05-08 22:55:00,61.2,61.2,31.01,SSE,147,3.6,3.6,100,0.00,,,0.00,VWS V13.01,2013-05-09 03:55:00,
2013-05-08 22:56:00,61.0,61.0,31.01,SSE,147,4.9,4.9,100,0.00,,,0.00,VWS V13.01,2013-05-09 03:56:00,
2013-05-08 22:57:00,61.2,61.2,30.98,SSE,147,4.0,4.0,100,0.00,,,0.00,VWS V13.01,2013-05-09 03:57:00,
2013-05-08 22:58:00,61.2,61.2,30.98,SSE,148,4.0,4.0,100,0.00,,,0.00,VWS V13.01,2013-05-09 03:58:00,
2013-05-08 23:00:00,61.2,61.2,30.98,SSE,148,3.6,3.6,100,0.00,,,0.00,VWS V13.01,2013-05-09 04:00:00,
2013-05-08 23:01:00,61.2,61.2,30.98,SSE,148,3.6,3.6,100,0.00,,,0.00,VWS V13.01,2013-05-09 04:01:00,
2013-05-08 23:06:00,61.2,61.2,30.98,SSE,155,5.8,5.8,100,0.00,,,0.00,VWS V13.01,2013-05-09 04:06:00,
2013-05-08 23:11:00,61.9,59.2,30.98,South,174,5.4,5.4,91,0.00,,,0.00,VWS V13.01,2013-05-09 04:11:00,
2013-05-08 23:16:00,62.2,53.5,30.98,SSE,150,7.2,7.2,73,0.00,,,0.00,VWS V13.01,2013-05-09 04:16:00,
2013-05-08 23:17:00,62.4,53.7,30.98,South,169,7.6,7.6,73,0.00,,,0.00,VWS V13.01,2013-05-09 04:17:00,
2013-05-08 23:21:00,63.0,54.2,30.98,South,177,8.1,8.1,73,0.00,,,0.00,VWS V13.01,2013-05-09 04:21:00,
2013-05-08 23:22:00,63.1,54.3,30.98,SSE,161,8.7,8.7,73,0.00,,,0.04,VWS V13.01,2013-05-09 04:22:00,
2013-05-08 23:26:00,62.8,54.0,30.98,SSE,155,6.3,6.3,73,0.04,,,0.04,VWS V13.01,2013-05-09 04:26:00,
2013-05-08 23:27:00,62.4,59.8,30.98,South,174,7.6,7.6,91,0.04,,,0.04,VWS V13.01,2013-05-09 04:27:00,
2013-05-08 23:31:00,62.1,59.4,30.98,South,179,5.8,5.8,91,0.04,,,0.04,VWS V13.01,2013-05-09 04:31:00,
2013-05-08 23:32:00,61.9,59.2,30.98,SSE,162,6.3,6.3,91,0.04,,,0.04,VWS V13.01,2013-05-09 04:32:00,
2013-05-08 23:36:00,61.5,61.5,30.98,South,183,4.9,4.9,100,0.04,,,0.04,VWS V13.01,2013-05-09 04:36:00,
2013-05-08 23:37:00,61.5,61.5,30.98,South,175,5.8,5.8,100,0.04,,,0.04,VWS V13.01,2013-05-09 04:37:00,
2013-05-08 23:41:00,61.7,61.7,30.98,South,173,9.6,9.6,100,0.04,,,0.04,VWS V13.01,2013-05-09 04:41:00,
2013-05-08 23:42:00,61.7,61.7,30.98,South,169,8.1,8.1,100,0.04,,,0.04,VWS V13.01,2013-05-09 04:42:00,
2013-05-08 23:43:00,61.7,61.7,30.98,South,175,8.3,8.3,100,0.04,,,0.04,VWS V13.01,2013-05-09 04:43:00,
2013-05-08 23:46:00,61.9,61.9,30.98,SSE,163,9.6,9.6,100,0.04,,,0.04,VWS V13.01,2013-05-09 04:46:00,
2013-05-08 23:47:00,62.1,62.1,30.98,South,171,12.3,12.3,100,0.04,,,0.04,VWS V13.01,2013-05-09 04:47:00,
2013-05-08 23:48:00,62.1,62.1,30.98,South,173,10.1,10.1,100,0.04,,,0.04,VWS V13.01,2013-05-09 04:48:00,
2013-05-08 23:51:00,62.1,62.1,30.98,South,189,11.0,11.0,100,0.04,,,0.04,VWS V13.01,2013-05-09 04:51:00,
2013-05-08 23:52:00,61.9,59.2,30.98,SSE,167,8.3,8.3,91,0.04,,,0.04,VWS V13.01,2013-05-09 04:52:00,
2013-05-08 23:53:00,62.1,59.4,30.98,South,172,10.1,10.1,91,0.04,,,0.04,VWS V13.01,2013-05-09 04:53:00,
2013-05-08 23:56:00,62.2,59.6,30.98,South,191,11.0,11.0,91,0.04,,,0.04,VWS V13.01,2013-05-09 04:56:00,
2013-05-08 23:57:00,62.2,59.6,30.98,South,177,10.1,10.1,91,0.04,,,0.04,VWS V13.01,2013-05-09 04:57:00,
2013-05-08 23:58:00,62.2,59.6,30.98,South,179,10.1,10.1,91,0.04,,,0.04,VWS V13.01,2013-05-09 04:58:00,